Wetterdaten: Sonntag, 24.01.2016
Datum Zeit Temp. Aussen Temp. o. S. +5cm Feuchte Auss BlattFeu 1 Luftdruck Regen Sonnenschein Regendauer Solar Windben Empfang
24.01.2016 00:00 5,1 C 5,0 C 3,3 C 95 % 0 lf 1032,8 hPa 0,0 l/m 0 min 0 min 0 W/m 12,6 km/h (3 Bft) 93,62 %
24.01.2016 00:02 5,1 C 5,0 C 3,3 C 95 % 0 lf 1032,8 hPa 0,0 l/m 0 min 0 min 0 W/m 12,6 km/h (3 Bft) 95,00 %
24.01.2016 00:06 5,1 C 5,0 C 3,3 C 94 % 0 lf 1032,8 hPa 0,0 l/m 0 min 0 min 0 W/m 16,7 km/h (3 Bft) 96,84 %
24.01.2016 00:08 5,0 C 5,0 C 3,3 C 94 % 0 lf 1032,7 hPa 0,0 l/m 0 min 0 min 0 W/m 12,6 km/h (3 Bft) 97,87 %
24.01.2016 00:10 5,0 C 5,0 C 3,3 C 94 % 0 lf 1032,8 hPa 0,0 l/m 0 min 0 min 0 W/m 14,6 km/h (3 Bft) 97,87 %
24.01.2016 00:12 4,9 C 5,0 C 3,3 C 94 % 0 lf 1032,8 hPa 0,0 l/m 0 min 0 min 0 W/m 12,6 km/h (3 Bft) 97,87 %
24.01.2016 00:14 4,9 C 5,0 C 3,3 C 94 % 0 lf 1032,9 hPa 0,0 l/m 0 min 0 min 0 W/m 12,6 km/h (3 Bft) 97,83 %
24.01.2016 00:16 4,9 C 5,0 C 3,3 C 94 % 1 lf 1032,8 hPa 0,0 l/m 0 min 0 min 0 W/m 10,5 km/h (2 Bft) 95,74 %
24.01.2016 00:18 4,9 C 5,0 C 3,3 C 94 % 0 lf 1032,8 hPa 0,0 l/m 0 min 0 min 0 W/m 14,6 km/h (3 Bft) 89,36 %
24.01.2016 00:20 4,9 C 5,0 C 3,3 C 94 % 0 lf 1032,8 hPa 0,0 l/m 0 min 0 min 0 W/m 14,6 km/h (3 Bft) 95,74 %
24.01.2016 00:22 4,9 C 5,0 C 3,3 C 94 % 0 lf 1032,8 hPa 0,0 l/m 0 min 0 min 0 W/m 12,6 km/h (3 Bft) 95,74 %
24.01.2016 00:24 4,8 C 5,0 C 3,3 C 94 % 0 lf 1032,7 hPa 0,0 l/m 0 min 0 min 0 W/m 12,6 km/h (3 Bft) 95,74 %
24.01.2016 00:26 4,8 C 5,0 C 3,3 C 94 % 0 lf 1032,7 hPa 0,0 l/m 0 min 0 min 0 W/m 12,6 km/h (3 Bft) 91,30 %
24.01.2016 00:28 4,8 C 5,0 C 3,3 C 94 % 0 lf 1032,7 hPa 0,0 l/m 0 min 0 min 0 W/m 14,6 km/h (3 Bft) 95,74 %
24.01.2016 00:30 4,8 C 5,0 C 3,3 C 94 % 0 lf 1032,7 hPa 0,0 l/m 0 min 0 min 0 W/m 14,6 km/h (3 Bft) 93,62 %
24.01.2016 00:32 4,8 C 5,0 C 3,3 C 94 % 0 lf 1032,7 hPa 0,0 l/m 0 min 0 min 0 W/m 14,6 km/h (3 Bft) 89,36 %
24.01.2016 00:34 4,8 C 5,0 C 3,3 C 94 % 0 lf 1032,7 hPa 0,0 l/m 0 min 0 min 0 W/m 18,8 km/h (3 Bft) 95,74 %
24.01.2016 00:36 4,8 C 5,0 C 3,3 C 94 % 0 lf 1032,6 hPa 0,0 l/m 0 min 0 min 0 W/m 14,6 km/h (3 Bft) 95,74 %
24.01.2016 00:38 4,8 C 5,0 C 3,3 C 94 % 0 lf 1032,5 hPa 0,0 l/m 0 min 0 min 0 W/m 12,6 km/h (3 Bft) 93,48 %
24.01.2016 00:40 4,7 C 5,0 C 2,8 C 94 % 0 lf 1032,5 hPa 0,0 l/m 0 min 0 min 0 W/m 14,6 km/h (3 Bft) 95,74 %
24.01.2016 00:42 4,7 C 5,0 C 2,8 C 94 % 0 lf 1032,6 hPa 0,0 l/m 0 min 0 min 0 W/m 14,6 km/h (3 Bft) 95,74 %
24.01.2016 00:44 4,7 C 5,0 C 2,8 C 94 % 0 lf 1032,6 hPa 0,0 l/m 0 min 0 min 0 W/m 14,6 km/h (3 Bft) 95,74 %
24.01.2016 00:46 4,7 C 4,4 C 2,8 C 93 % 0 lf 1032,4 hPa 0,0 l/m 0 min 0 min 0 W/m 14,6 km/h (3 Bft) 95,74 %
24.01.2016 00:48 4,7 C 4,4 C 2,8 C 93 % 0 lf 1032,5 hPa 0,0 l/m 0 min 0 min 0 W/m 18,8 km/h (3 Bft) 97,87 %
24.01.2016 00:50 4,7 C 4,4 C 2,8 C 93 % 0 lf 1032,5 hPa 0,0 l/m 0 min 0 min 0 W/m 14,6 km/h (3 Bft) 93,48 %
24.01.2016 00:52 4,6 C 4,4 C 2,8 C 93 % 0 lf 1032,4 hPa 0,0 l/m 0 min 0 min 0 W/m 10,5 km/h (2 Bft) 97,87 %
24.01.2016 00:54 4,6 C 4,4 C 2,8 C 93 % 0 lf 1032,5 hPa 0,0 l/m 0 min 0 min 0 W/m 14,6 km/h (3 Bft) 100,00 %
24.01.2016 00:56 4,6 C 4,4 C 2,8 C 93 % 0 lf 1032,4 hPa 0,0 l/m 0 min 0 min 0 W/m 16,7 km/h (3 Bft) 100,00 %
24.01.2016 00:58 4,6 C 4,4 C 2,8 C 93 % 0 lf 1032,4 hPa 0,0 l/m 0 min 0 min 0 W/m 14,6 km/h (3 Bft) 100,00 %
24.01.2016 01:00 4,6 C 4,4 C 2,8 C 93 % 0 lf 1032,3 hPa 0,0 l/m 0 min 0 min 0 W/m 16,7 km/h (3 Bft) 100,00 %
24.01.2016 01:02 4,5 C 4,4 C 2,8 C 93 % 0 lf 1032,3 hPa 0,0 l/m 0 min 0 min 0 W/m 16,7 km/h (3 Bft) 100,00 %
24.01.2016 01:04 4,5 C 4,4 C 2,8 C 93 % 0 lf 1032,3 hPa 0,0 l/m 0 min 0 min 0 W/m 16,7 km/h (3 Bft) 97,87 %
24.01.2016 01:06 4,5 C 4,4 C 2,8 C 93 % 0 lf 1032,2 hPa 0,0 l/m 0 min 0 min 0 W/m 20,9 km/h (4 Bft) 100,00 %
24.01.2016 01:08 4,5 C 4,4 C 2,8 C 93 % 0 lf 1032,1 hPa 0,0 l/m 0 min 0 min 0 W/m 20,9 km/h (4 Bft) 100,00 %
24.01.2016 01:10 4,4 C 4,4 C 2,8 C 93 % 0 lf 1032,1 hPa 0,0 l/m 0 min 0 min 0 W/m 20,9 km/h (4 Bft) 100,00 %
24.01.2016 01:12 4,4 C 4,4 C 2,8 C 93 % 0 lf 1032,0 hPa 0,0 l/m 0 min 0 min 0 W/m 16,7 km/h (3 Bft) 100,00 %
24.01.2016 01:14 4,4 C 4,4 C 2,8 C 93 % 0 lf 1032,0 hPa 0,0 l/m 0 min 0 min 0 W/m 20,9 km/h (4 Bft) 97,83 %
24.01.2016 01:16 4,4 C 4,4 C 2,8 C 93 % 0 lf 1032,0 hPa 0,0 l/m 0 min 0 min 0 W/m 25,1 km/h (4 Bft) 100,00 %
24.01.2016 01:18 4,4 C 5,0 C 3,3 C 93 % 0 lf 1032,0 hPa 0,0 l/m 0 min 0 min 0 W/m 25,1 km/h (4 Bft) 97,87 %
24.01.2016 01:20 4,4 C 5,0 C 3,3 C 93 % 0 lf 1032,0 hPa 0,0 l/m 0 min 0 min 0 W/m 18,8 km/h (3 Bft) 100,00 %
24.01.2016 01:22 4,4 C 4,4 C 3,3 C 93 % 0 lf 1031,8 hPa 0,0 l/m 0 min 0 min 0 W/m 18,8 km/h (3 Bft) 100,00 %
24.01.2016 01:24 4,4 C 4,4 C 3,3 C 93 % 0 lf 1031,9 hPa 0,0 l/m 0 min 0 min 0 W/m 20,9 km/h (4 Bft) 97,83 %
24.01.2016 01:26 4,4 C 4,4 C 3,3 C 93 % 0 lf 1032,0 hPa 0,0 l/m 0 min 0 min 0 W/m 18,8 km/h (3 Bft) 100,00 %
24.01.2016 01:28 4,4 C 4,4 C 3,3 C 93 % 0 lf 1032,0 hPa 0,0 l/m 0 min 0 min 0 W/m 25,1 km/h (4 Bft) 100,00 %
24.01.2016 01:30 4,4 C 5,0 C 3,3 C 93 % 0 lf 1031,9 hPa 0,0 l/m 0 min 0 min 0 W/m 29,3 km/h (5 Bft) 97,87 %
24.01.2016 01:32 4,4 C 4,4 C 3,3 C 93 % 0 lf 1031,9 hPa 0,0 l/m 0 min 0 min 0 W/m 16,7 km/h (3 Bft) 97,87 %
24.01.2016 01:34 4,4 C 4,4 C 2,8 C 93 % 0 lf 1031,9 hPa 0,0 l/m 0 min 0 min 0 W/m 18,8 km/h (3 Bft) 100,00 %
24.01.2016 01:36 4,4 C 4,4 C 3,3 C 92 % 0 lf 1031,9 hPa 0,0 l/m 0 min 0 min 0 W/m 20,9 km/h (4 Bft) 100,00 %
24.01.2016 01:38 4,4 C 5,0 C 3,3 C 92 % 0 lf 1031,9 hPa 0,0 l/m 0 min 0 min 0 W/m 20,9 km/h (4 Bft) 100,00 %
24.01.2016 01:40 4,4 C 5,0 C 3,3 C 92 % 0 lf 1031,8 hPa 0,0 l/m 0 min 0 min 0 W/m 23,0 km/h (4 Bft) 97,87 %
24.01.2016 01:42 4,4 C 5,0 C 3,3 C 92 % 0 lf 1031,8 hPa 0,0 l/m 0 min 0 min 0 W/m 25,1 km/h (4 Bft) 93,62 %
24.01.2016 01:44 4,4 C 5,0 C 3,3 C 92 % 0 lf 1031,8 hPa 0,0 l/m 0 min 0 min 0 W/m 23,0 km/h (4 Bft) 97,87 %
24.01.2016 01:46 4,4 C 5,0 C 3,3 C 92 % 0 lf 1031,9 hPa 0,0 l/m 0 min 0 min 0 W/m 25,1 km/h (4 Bft) 97,87 %
24.01.2016 01:48 4,4 C 4,4 C 3,3 C 92 % 0 lf 1031,8 hPa 0,0 l/m 0 min 0 min 0 W/m 16,7 km/h (3 Bft) 97,83 %
24.01.2016 01:50 4,4 C 4,4 C 3,3 C 92 % 0 lf 1031,8 hPa 0,0 l/m 0 min 0 min 0 W/m 16,7 km/h (3 Bft) 97,87 %
24.01.2016 01:52 4,4 C 4,4 C 2,8 C 92 % 0 lf 1031,9 hPa 0,0 l/m 0 min 0 min 0 W/m 23,0 km/h (4 Bft) 93,62 %
24.01.2016 01:54 4,4 C 4,4 C 2,8 C 92 % 0 lf 1031,9 hPa 0,0 l/m 0 min 0 min 0 W/m 18,8 km/h (3 Bft) 95,74 %
24.01.2016 01:56 4,4 C 4,4 C 2,8 C 92 % 0 lf 1032,0 hPa 0,0 l/m 0 min 0 min 0 W/m 20,9 km/h (4 Bft) 95,74 %
24.01.2016 01:58 4,4 C 4,4 C 2,8 C 92 % 0 lf 1031,9 hPa 0,0 l/m 0 min 0 min 0 W/m 14,6 km/h (3 Bft) 95,74 %
24.01.2016 02:00 4,4 C 4,4 C 2,8 C 92 % 0 lf 1032,0 hPa 0,0 l/m 0 min 0 min 0 W/m 14,6 km/h (3 Bft) 89,13 %
24.01.2016 02:02 4,4 C 4,4 C 2,8 C 92 % 0 lf 1032,0 hPa 0,0 l/m 0 min 0 min 0 W/m 18,8 km/h (3 Bft) 93,62 %
24.01.2016 02:04 4,4 C 5,0 C 3,3 C 92 % 0 lf 1032,0 hPa 0,0 l/m 0 min 0 min 0 W/m 18,8 km/h (3 Bft) 93,62 %
24.01.2016 02:06 4,4 C 4,4 C 2,8 C 92 % 0 lf 1031,9 hPa 0,0 l/m 0 min 0 min 0 W/m 18,8 km/h (3 Bft) 93,62 %
24.01.2016 02:08 4,4 C 4,4 C 3,3 C 92 % 0 lf 1031,9 hPa 0,0 l/m 0 min 0 min 0 W/m 10,5 km/h (2 Bft) 95,74 %
24.01.2016 02:10 4,4 C 4,4 C 2,8 C 92 % 0 lf 1031,9 hPa 0,0 l/m 0 min 0 min 0 W/m 12,6 km/h (3 Bft) 95,74 %
24.01.2016 02:12 4,4 C 4,4 C 2,8 C 92 % 0 lf 1031,9 hPa 0,0 l/m 0 min 0 min 0 W/m 14,6 km/h (3 Bft) 93,48 %
24.01.2016 02:14 4,4 C 4,4 C 2,8 C 92 % 0 lf 1031,8 hPa 0,0 l/m 0 min 0 min 0 W/m 14,6 km/h (3 Bft) 91,49 %
24.01.2016 02:16 4,4 C 4,4 C 2,8 C 92 % 0 lf 1031,8 hPa 0,0 l/m 0 min 0 min 0 W/m 12,6 km/h (3 Bft) 89,36 %
24.01.2016 02:18 4,4 C 4,4 C 2,8 C 92 % 0 lf 1031,8 hPa 0,0 l/m 0 min 0 min 0 W/m 16,7 km/h (3 Bft) 91,49 %
24.01.2016 02:20 4,4 C 4,4 C 2,8 C 92 % 0 lf 1031,8 hPa 0,0 l/m 0 min 0 min 0 W/m 14,6 km/h (3 Bft) 93,62 %
24.01.2016 02:22 4,4 C 4,4 C 3,3 C 92 % 0 lf 1031,8 hPa 0,0 l/m 0 min 0 min 0 W/m 14,6 km/h (3 Bft) 93,48 %
24.01.2016 02:24 4,4 C 4,4 C 2,8 C 92 % 0 lf 1031,9 hPa 0,0 l/m 0 min 0 min 0 W/m 10,5 km/h (2 Bft) 91,49 %
24.01.2016 02:26 4,4 C 4,4 C 2,8 C 92 % 0 lf 1031,8 hPa 0,0 l/m 0 min 0 min 0 W/m 10,5 km/h (2 Bft) 95,74 %
24.01.2016 02:28 4,4 C 4,4 C 2,8 C 92 % 0 lf 1031,8 hPa 0,0 l/m 0 min 0 min 0 W/m 8,4 km/h (2 Bft) 93,62 %
24.01.2016 02:30 4,4 C 4,4 C 2,8 C 92 % 0 lf 1031,9 hPa 0,0 l/m 0 min 0 min 0 W/m 6,3 km/h (2 Bft) 93,62 %
24.01.2016 02:32 4,4 C 4,4 C 2,8 C 92 % 0 lf 1031,9 hPa 0,0 l/m 0 min 0 min 0 W/m 8,4 km/h (2 Bft) 91,49 %
24.01.2016 02:34 4,3 C 4,4 C 2,8 C 91 % 0 lf 1031,9 hPa 0,0 l/m 0 min 0 min 0 W/m 8,4 km/h (2 Bft) 93,48 %
24.01.2016 02:36 4,3 C 4,4 C 2,8 C 91 % 0 lf 1031,9 hPa 0,0 l/m 0 min 0 min 0 W/m 4,2 km/h (1 Bft) 93,62 %
24.01.2016 02:38 4,3 C 4,4 C 2,8 C 91 % 0 lf 1032,0 hPa 0,0 l/m 0 min 0 min 0 W/m 4,2 km/h (1 Bft) 89,36 %
24.01.2016 02:40 4,3 C 3,9 C 2,8 C 91 % 0 lf 1032,0 hPa 0,0 l/m 0 min 0 min 0 W/m 6,3 km/h (2 Bft) 86,96 %
24.01.2016 02:42 4,3 C 3,9 C 2,2 C 91 % 0 lf 1032,0 hPa 0,0 l/m 0 min 0 min 0 W/m 6,3 km/h (2 Bft) 87,23 %
24.01.2016 02:44 4,3 C 3,9 C 2,2 C 91 % 0 lf 1031,9 hPa 0,0 l/m 0 min 0 min 0 W/m 8,4 km/h (2 Bft) 93,62 %
24.01.2016 02:46 4,3 C 3,9 C 2,2 C 91 % 0 lf 1032,0 hPa 0,0 l/m 0 min 0 min 0 W/m 8,4 km/h (2 Bft) 91,30 %
24.01.2016 02:48 4,2 C 3,9 C 2,2 C 91 % 0 lf 1032,0 hPa 0,0 l/m 0 min 0 min 0 W/m 10,5 km/h (2 Bft) 91,49 %
24.01.2016 02:50 4,2 C 3,9 C 2,2 C 91 % 0 lf 1032,0 hPa 0,0 l/m 0 min 0 min 0 W/m 8,4 km/h (2 Bft) 93,62 %
24.01.2016 02:52 4,2 C 3,9 C 2,2 C 91 % 0 lf 1031,9 hPa 0,0 l/m 0 min 0 min 0 W/m 8,4 km/h (2 Bft) 95,74 %
24.01.2016 02:54 4,2 C 3,9 C 2,2 C 91 % 0 lf 1031,9 hPa 0,0 l/m 0 min 0 min 0 W/m 8,4 km/h (2 Bft) 93,62 %
24.01.2016 02:56 4,1 C 3,9 C 2,2 C 91 % 0 lf 1032,0 hPa 0,0 l/m 0 min 0 min 0 W/m 8,4 km/h (2 Bft) 93,62 %
24.01.2016 02:58 4,1 C 3,9 C 2,2 C 91 % 0 lf 1032,0 hPa 0,0 l/m 0 min 0 min 0 W/m 10,5 km/h (2 Bft) 97,83 %
24.01.2016 03:00 4,1 C 3,9 C 2,2 C 91 % 0 lf 1032,0 hPa 0,0 l/m 0 min 0 min 0 W/m 8,4 km/h (2 Bft) 95,74 %
24.01.2016 03:02 4,1 C 3,9 C 2,2 C 91 % 0 lf 1032,1 hPa 0,0 l/m 0 min 0 min 0 W/m 8,4 km/h (2 Bft) 97,87 %
24.01.2016 03:04 4,0 C 3,9 C 2,2 C 91 % 0 lf 1032,1 hPa 0,0 l/m 0 min 0 min 0 W/m 8,4 km/h (2 Bft) 97,87 %
24.01.2016 03:06 3,9 C 3,9 C 2,2 C 91 % 0 lf 1032,1 hPa 0,0 l/m 0 min 0 min 0 W/m 10,5 km/h (2 Bft) 93,62 %
24.01.2016 03:08 3,9 C 3,9 C 2,2 C 91 % 0 lf 1032,1 hPa 0,0 l/m 0 min 0 min 0 W/m 8,4 km/h (2 Bft) 95,74 %
24.01.2016 03:10 3,9 C 3,9 C 2,2 C 91 % 0 lf 1032,1 hPa 0,0 l/m 0 min 0 min 0 W/m 8,4 km/h (2 Bft) 95,65 %
24.01.2016 03:12 3,9 C 3,9 C 2,2 C 92 % 0 lf 1032,1 hPa 0,0 l/m 0 min 0 min 0 W/m 10,5 km/h (2 Bft) 97,87 %
24.01.2016 03:14 3,8 C 3,9 C 2,2 C 92 % 0 lf 1032,1 hPa 0,0 l/m 0 min 0 min 0 W/m 10,5 km/h (2 Bft) 93,62 %
24.01.2016 03:16 3,8 C 3,9 C 2,2 C 92 % 0 lf 1032,2 hPa 0,0 l/m 0 min 0 min 0 W/m 10,5 km/h (2 Bft) 97,87 %
24.01.2016 03:18 3,8 C 3,9 C 2,2 C 92 % 0 lf 1032,1 hPa 0,0 l/m 0 min 0 min 0 W/m 10,5 km/h (2 Bft) 97,87 %
24.01.2016 03:20 3,8 C 3,9 C 2,2 C 92 % 0 lf 1032,2 hPa 0,0 l/m 0 min 0 min 0 W/m 8,4 km/h (2 Bft) 97,87 %
24.01.2016 03:22 3,7 C 3,9 C 2,2 C 92 % 0 lf 1032,2 hPa 0,0 l/m 0 min 0 min 0 W/m 8,4 km/h (2 Bft) 97,83 %
24.01.2016 03:24 3,7 C 3,3 C 2,2 C 92 % 0 lf 1032,1 hPa 0,0 l/m 0 min 0 min 0 W/m 8,4 km/h (2 Bft) 97,87 %
24.01.2016 03:26 3,7 C 3,3 C 2,2 C 92 % 0 lf 1032,1 hPa 0,0 l/m 0 min 0 min 0 W/m 8,4 km/h (2 Bft) 95,74 %
24.01.2016 03:28 3,7 C 3,3 C 2,2 C 92 % 0 lf 1032,1 hPa 0,0 l/m 0 min 0 min 0 W/m 8,4 km/h (2 Bft) 97,87 %
24.01.2016 03:30 3,7 C 3,3 C 2,2 C 92 % 0 lf 1032,1 hPa 0,0 l/m 0 min 0 min 0 W/m 8,4 km/h (2 Bft) 93,62 %
24.01.2016 03:32 3,6 C 3,3 C 2,2 C 92 % 0 lf 1032,1 hPa 0,0 l/m 0 min 0 min 0 W/m 8,4 km/h (2 Bft) 100,00 %
24.01.2016 03:34 3,6 C 3,3 C 2,2 C 92 % 0 lf 1032,2 hPa 0,0 l/m 0 min 0 min 0 W/m 6,3 km/h (2 Bft) 97,83 %
24.01.2016 03:36 3,6 C 3,3 C 2,2 C 92 % 0 lf 1032,2 hPa 0,0 l/m 0 min 0 min 0 W/m 6,3 km/h (2 Bft) 100,00 %
24.01.2016 03:38 3,6 C 3,3 C 2,2 C 92 % 0 lf 1032,2 hPa 0,0 l/m 0 min 0 min 0 W/m 8,4 km/h (2 Bft) 100,00 %
24.01.2016 03:40 3,5 C 3,3 C 1,7 C 92 % 0 lf 1032,1 hPa 0,0 l/m 0 min 0 min 0 W/m 10,5 km/h (2 Bft) 97,87 %
24.01.2016 03:42 3,5 C 3,3 C 1,7 C 92 % 0 lf 1032,2 hPa 0,0 l/m 0 min 0 min 0 W/m 8,4 km/h (2 Bft) 95,74 %
24.01.2016 03:44 3,5 C 3,3 C 1,7 C 92 % 0 lf 1032,2 hPa 0,0 l/m 0 min 0 min 0 W/m 8,4 km/h (2 Bft) 100,00 %
24.01.2016 03:46 3,4 C 3,3 C 1,7 C 92 % 0 lf 1032,2 hPa 0,0 l/m 0 min 0 min 0 W/m 10,5 km/h (2 Bft) 97,87 %
24.01.2016 03:48 3,4 C 3,3 C 1,7 C 92 % 1 lf 1032,2 hPa 0,0 l/m 0 min 0 min 0 W/m 4,2 km/h (1 Bft) 100,00 %
24.01.2016 03:50 3,4 C 3,3 C 1,7 C 92 % 1 lf 1032,1 hPa 0,0 l/m 0 min 0 min 0 W/m 6,3 km/h (2 Bft) 100,00 %
24.01.2016 03:52 3,4 C 3,3 C 1,7 C 92 % 1 lf 1032,1 hPa 0,0 l/m 0 min 0 min 0 W/m 6,3 km/h (2 Bft) 95,74 %
24.01.2016 03:54 3,4 C 3,3 C 1,7 C 92 % 1 lf 1032,1 hPa 0,0 l/m 0 min 0 min 0 W/m 4,2 km/h (1 Bft) 100,00 %
24.01.2016 03:56 3,4 C 3,3 C 1,7 C 92 % 1 lf 1032,1 hPa 0,0 l/m 0 min 0 min 0 W/m 4,2 km/h (1 Bft) 97,83 %
24.01.2016 03:58 3,3 C 2,8 C 1,7 C 93 % 1 lf 1032,0 hPa 0,0 l/m 0 min 0 min 0 W/m 4,2 km/h (1 Bft) 100,00 %
24.01.2016 04:00 3,3 C 2,8 C 1,1 C 93 % 1 lf 1032,0 hPa 0,0 l/m 0 min 0 min 0 W/m 6,3 km/h (2 Bft) 100,00 %
24.01.2016 04:05 3,3 C 2,8 C 1,1 C 92 % 1 lf 1031,9 hPa 0,0 l/m 0 min 0 min 0 W/m 6,3 km/h (2 Bft) 94,92 %
24.01.2016 04:06 3,3 C 2,8 C 1,1 C 92 % 1 lf 1031,9 hPa 0,0 l/m 0 min 0 min 0 W/m 6,3 km/h (2 Bft) 100,00 %
24.01.2016 04:08 3,2 C 2,8 C 1,1 C 92 % 1 lf 1032,0 hPa 0,0 l/m 0 min 0 min 0 W/m 8,4 km/h (2 Bft) 95,65 %
24.01.2016 04:10 3,2 C 2,8 C 1,1 C 92 % 1 lf 1032,0 hPa 0,0 l/m 0 min 0 min 0 W/m 10,5 km/h (2 Bft) 95,74 %
24.01.2016 04:12 3,2 C 2,8 C 1,1 C 92 % 1 lf 1032,0 hPa 0,0 l/m 0 min 0 min 0 W/m 10,5 km/h (2 Bft) 100,00 %
24.01.2016 04:14 3,2 C 2,8 C 1,1 C 93 % 1 lf 1031,9 hPa 0,0 l/m 0 min 0 min 0 W/m 8,4 km/h (2 Bft) 95,74 %
24.01.2016 04:19 3,1 C 2,8 C 1,1 C 93 % 1 lf 1031,9 hPa 0,0 l/m 0 min 0 min 0 W/m 10,5 km/h (2 Bft) 96,77 %
24.01.2016 04:20 3,1 C 2,8 C 1,1 C 93 % 1 lf 1031,9 hPa 0,0 l/m 0 min 0 min 0 W/m 10,5 km/h (2 Bft) 95,65 %
24.01.2016 04:22 3,1 C 2,8 C 1,1 C 93 % 1 lf 1031,9 hPa 0,0 l/m 0 min 0 min 0 W/m 10,5 km/h (2 Bft) 95,74 %
24.01.2016 04:24 3,1 C 2,8 C 1,1 C 93 % 1 lf 1031,9 hPa 0,0 l/m 0 min 0 min 0 W/m 6,3 km/h (2 Bft) 93,62 %
24.01.2016 04:26 3,0 C 2,8 C 1,1 C 93 % 1 lf 1031,8 hPa 0,0 l/m 0 min 0 min 0 W/m 10,5 km/h (2 Bft) 97,87 %
24.01.2016 04:28 3,0 C 2,8 C 1,7 C 93 % 1 lf 1031,7 hPa 0,0 l/m 0 min 0 min 0 W/m 10,5 km/h (2 Bft) 97,87 %
24.01.2016 04:30 3,0 C 2,8 C 1,7 C 93 % 1 lf 1031,8 hPa 0,0 l/m 0 min 0 min 0 W/m 8,4 km/h (2 Bft) 97,83 %
24.01.2016 04:32 2,9 C 2,8 C 1,7 C 93 % 1 lf 1031,7 hPa 0,0 l/m 0 min 0 min 0 W/m 8,4 km/h (2 Bft) 100,00 %
24.01.2016 04:34 2,9 C 2,8 C 1,7 C 93 % 1 lf 1031,7 hPa 0,0 l/m 0 min 0 min 0 W/m 6,3 km/h (2 Bft) 100,00 %
24.01.2016 04:36 2,9 C 2,8 C 1,7 C 93 % 1 lf 1031,6 hPa 0,0 l/m 0 min 0 min 0 W/m 8,4 km/h (2 Bft) 100,00 %
24.01.2016 04:38 2,9 C 2,8 C 1,7 C 93 % 1 lf 1031,6 hPa 0,0 l/m 0 min 0 min 0 W/m 10,5 km/h (2 Bft) 100,00 %
24.01.2016 04:40 2,9 C 2,8 C 1,7 C 93 % 1 lf 1031,6 hPa 0,0 l/m 0 min 0 min 0 W/m 12,6 km/h (3 Bft) 100,00 %
24.01.2016 04:42 2,9 C 2,8 C 1,7 C 93 % 1 lf 1031,6 hPa 0,0 l/m 0 min 0 min 0 W/m 8,4 km/h (2 Bft) 97,83 %
24.01.2016 04:44 2,9 C 2,8 C 1,7 C 93 % 1 lf 1031,6 hPa 0,0 l/m 0 min 0 min 0 W/m 8,4 km/h (2 Bft) 100,00 %
24.01.2016 04:46 2,9 C 3,3 C 1,7 C 93 % 1 lf 1031,5 hPa 0,0 l/m 0 min 0 min 0 W/m 10,5 km/h (2 Bft) 97,87 %
24.01.2016 04:48 2,9 C 3,3 C 1,7 C 93 % 1 lf 1031,4 hPa 0,0 l/m 0 min 0 min 0 W/m 8,4 km/h (2 Bft) 100,00 %
24.01.2016 04:50 2,9 C 3,3 C 1,7 C 94 % 1 lf 1031,4 hPa 0,0 l/m 0 min 0 min 0 W/m 10,5 km/h (2 Bft) 100,00 %
24.01.2016 04:52 2,9 C 3,3 C 1,7 C 94 % 1 lf 1031,4 hPa 0,0 l/m 0 min 0 min 0 W/m 12,6 km/h (3 Bft) 97,87 %
24.01.2016 04:54 2,9 C 3,3 C 1,7 C 93 % 0 lf 1031,3 hPa 0,0 l/m 0 min 0 min 0 W/m 10,5 km/h (2 Bft) 100,00 %
24.01.2016 04:56 2,9 C 3,3 C 1,7 C 94 % 1 lf 1031,3 hPa 0,0 l/m 0 min 0 min 0 W/m 12,6 km/h (3 Bft) 97,87 %
24.01.2016 04:58 2,9 C 3,3 C 1,7 C 94 % 0 lf 1031,3 hPa 0,0 l/m 0 min 0 min 0 W/m 10,5 km/h (2 Bft) 97,87 %
24.01.2016 05:00 2,9 C 3,3 C 1,7 C 94 % 0 lf 1031,3 hPa 0,0 l/m 0 min 0 min 0 W/m 12,6 km/h (3 Bft) 95,74 %
24.01.2016 05:02 2,9 C 3,3 C 1,7 C 94 % 0 lf 1031,2 hPa 0,0 l/m 0 min 0 min 0 W/m 12,6 km/h (3 Bft) 94,29 %
24.01.2016 05:04 2,9 C 3,3 C 1,7 C 94 % 0 lf 1031,2 hPa 0,0 l/m 0 min 0 min 0 W/m 12,6 km/h (3 Bft) 96,23 %
24.01.2016 05:06 2,9 C 3,3 C 1,7 C 94 % 0 lf 1031,1 hPa 0,0 l/m 0 min 0 min 0 W/m 16,7 km/h (3 Bft) 91,49 %
24.01.2016 05:08 2,9 C 3,3 C 1,7 C 94 % 0 lf 1031,1 hPa 0,0 l/m 0 min 0 min 0 W/m 12,6 km/h (3 Bft) 93,48 %
24.01.2016 05:10 2,9 C 3,3 C 1,7 C 94 % 0 lf 1031,0 hPa 0,0 l/m 0 min 0 min 0 W/m 14,6 km/h (3 Bft) 93,62 %
24.01.2016 05:12 2,9 C 3,3 C 1,7 C 94 % 0 lf 1031,1 hPa 0,0 l/m 0 min 0 min 0 W/m 16,7 km/h (3 Bft) 95,74 %
24.01.2016 05:14 2,9 C 3,3 C 1,7 C 94 % 0 lf 1031,0 hPa 0,0 l/m 0 min 0 min 0 W/m 14,6 km/h (3 Bft) 93,62 %
24.01.2016 05:16 2,9 C 3,3 C 1,7 C 94 % 0 lf 1030,9 hPa 0,0 l/m 0 min 0 min 0 W/m 14,6 km/h (3 Bft) 95,12 %
24.01.2016 05:18 2,9 C 3,3 C 1,7 C 94 % 0 lf 1031,0 hPa 0,0 l/m 0 min 0 min 0 W/m 16,7 km/h (3 Bft) 95,74 %
24.01.2016 05:20 2,9 C 3,3 C 1,7 C 94 % 0 lf 1030,9 hPa 0,0 l/m 0 min 0 min 0 W/m 16,7 km/h (3 Bft) 95,65 %
24.01.2016 05:22 2,9 C 3,3 C 1,7 C 94 % 0 lf 1030,8 hPa 0,0 l/m 0 min 0 min 0 W/m 16,7 km/h (3 Bft) 91,49 %
24.01.2016 05:24 3,0 C 3,3 C 1,7 C 94 % 0 lf 1030,8 hPa 0,0 l/m 0 min 0 min 0 W/m 14,6 km/h (3 Bft) 93,62 %
24.01.2016 05:26 3,0 C 3,3 C 1,7 C 94 % 0 lf 1030,9 hPa 0,0 l/m 0 min 0 min 0 W/m 16,7 km/h (3 Bft) 93,62 %
24.01.2016 05:28 3,0 C 3,3 C 2,2 C 94 % 0 lf 1030,9 hPa 0,0 l/m 0 min 0 min 0 W/m 16,7 km/h (3 Bft) 93,62 %
24.01.2016 05:30 3,0 C 3,3 C 2,2 C 94 % 0 lf 1030,9 hPa 0,0 l/m 0 min 0 min 0 W/m 18,8 km/h (3 Bft) 93,62 %
24.01.2016 05:32 3,0 C 3,3 C 2,2 C 94 % 0 lf 1030,9 hPa 0,0 l/m 0 min 0 min 0 W/m 16,7 km/h (3 Bft) 93,48 %
24.01.2016 05:34 3,1 C 3,3 C 2,2 C 94 % 0 lf 1030,7 hPa 0,0 l/m 0 min 0 min 0 W/m 14,6 km/h (3 Bft) 93,62 %
24.01.2016 05:36 3,1 C 3,3 C 2,2 C 94 % 0 lf 1030,7 hPa 0,0 l/m 0 min 0 min 0 W/m 12,6 km/h (3 Bft) 93,62 %
24.01.2016 05:38 3,1 C 3,3 C 2,2 C 94 % 0 lf 1030,7 hPa 0,0 l/m 0 min 0 min 0 W/m 14,6 km/h (3 Bft) 91,49 %
24.01.2016 05:40 3,1 C 3,3 C 2,2 C 94 % 0 lf 1030,7 hPa 0,0 l/m 0 min 0 min 0 W/m 18,8 km/h (3 Bft) 93,62 %
24.01.2016 05:42 3,1 C 3,3 C 2,2 C 94 % 0 lf 1030,7 hPa 0,0 l/m 0 min 0 min 0 W/m 12,6 km/h (3 Bft) 91,49 %
24.01.2016 05:44 3,1 C 3,3 C 2,2 C 94 % 0 lf 1030,6 hPa 0,0 l/m 0 min 0 min 0 W/m 14,6 km/h (3 Bft) 95,65 %
24.01.2016 05:46 3,1 C 3,3 C 2,2 C 94 % 0 lf 1030,6 hPa 0,0 l/m 0 min 0 min 0 W/m 14,6 km/h (3 Bft) 95,74 %
24.01.2016 05:48 3,1 C 3,3 C 2,2 C 94 % 0 lf 1030,6 hPa 0,0 l/m 0 min 0 min 0 W/m 16,7 km/h (3 Bft) 91,49 %
24.01.2016 05:50 3,1 C 3,3 C 2,2 C 94 % 0 lf 1030,5 hPa 0,0 l/m 0 min 0 min 0 W/m 18,8 km/h (3 Bft) 93,62 %
24.01.2016 05:52 3,1 C 3,3 C 2,2 C 94 % 0 lf 1030,4 hPa 0,0 l/m 0 min 0 min 0 W/m 12,6 km/h (3 Bft) 93,62 %
24.01.2016 05:54 3,2 C 3,3 C 2,2 C 95 % 0 lf 1030,4 hPa 0,0 l/m 0 min 0 min 0 W/m 25,1 km/h (4 Bft) 97,87 %
24.01.2016 05:56 3,2 C 3,3 C 2,2 C 95 % 0 lf 1030,4 hPa 0,0 l/m 0 min 0 min 0 W/m 14,6 km/h (3 Bft) 95,65 %
24.01.2016 05:58 3,2 C 3,3 C 2,2 C 95 % 0 lf 1030,5 hPa 0,0 l/m 0 min 0 min 0 W/m 18,8 km/h (3 Bft) 97,87 %
24.01.2016 06:00 3,2 C 3,3 C 2,2 C 95 % 0 lf 1030,5 hPa 0,0 l/m 0 min 0 min 0 W/m 18,8 km/h (3 Bft) 97,87 %
24.01.2016 06:02 3,2 C 3,3 C 2,2 C 95 % 0 lf 1030,6 hPa 0,0 l/m 0 min 0 min 0 W/m 10,5 km/h (2 Bft) 95,74 %
24.01.2016 06:04 3,2 C 3,3 C 2,2 C 95 % 0 lf 1030,6 hPa 0,0 l/m 0 min 0 min 0 W/m 10,5 km/h (2 Bft) 94,44 %
24.01.2016 06:06 3,2 C 3,3 C 2,2 C 95 % 0 lf 1030,6 hPa 0,0 l/m 0 min 0 min 0 W/m 12,6 km/h (3 Bft) 95,65 %
24.01.2016 06:08 3,2 C 3,3 C 2,2 C 95 % 0 lf 1030,5 hPa 0,0 l/m 0 min 0 min 0 W/m 12,6 km/h (3 Bft) 93,62 %
24.01.2016 06:10 3,2 C 3,9 C 2,2 C 95 % 0 lf 1030,6 hPa 0,0 l/m 0 min 0 min 0 W/m 14,6 km/h (3 Bft) 95,74 %
24.01.2016 06:12 3,2 C 3,9 C 2,2 C 95 % 0 lf 1030,6 hPa 0,0 l/m 0 min 0 min 0 W/m 12,6 km/h (3 Bft) 95,74 %
24.01.2016 06:14 3,2 C 3,9 C 2,2 C 94 % 0 lf 1030,6 hPa 0,0 l/m 0 min 0 min 0 W/m 10,5 km/h (2 Bft) 95,74 %
24.01.2016 06:16 3,2 C 3,9 C 2,2 C 94 % 0 lf 1030,6 hPa 0,0 l/m 0 min 0 min 0 W/m 10,5 km/h (2 Bft) 93,62 %
24.01.2016 06:18 3,3 C 3,9 C 2,2 C 94 % 0 lf 1030,7 hPa 0,0 l/m 0 min 0 min 0 W/m 10,5 km/h (2 Bft) 93,48 %
24.01.2016 06:20 3,2 C 3,9 C 2,2 C 94 % 0 lf 1030,8 hPa 0,0 l/m 0 min 0 min 0 W/m 10,5 km/h (2 Bft) 96,08 %
24.01.2016 06:22 3,3 C 3,9 C 2,2 C 94 % 1 lf 1030,8 hPa 0,0 l/m 0 min 2 min 0 W/m 8,4 km/h (2 Bft) 93,62 %
24.01.2016 06:24 3,3 C 3,9 C 2,2 C 94 % 1 lf 1030,7 hPa 0,0 l/m 0 min 2 min 0 W/m 8,4 km/h (2 Bft) 97,87 %
24.01.2016 06:26 3,3 C 3,3 C 2,2 C 94 % 1 lf 1030,6 hPa 0,0 l/m 0 min 2 min 0 W/m 8,4 km/h (2 Bft) 95,74 %
24.01.2016 06:28 3,3 C 3,3 C 2,2 C 94 % 1 lf 1030,6 hPa 0,0 l/m 0 min 2 min 0 W/m 12,6 km/h (3 Bft) 97,83 %
24.01.2016 06:30 3,3 C 3,3 C 2,2 C 94 % 1 lf 1030,5 hPa 0,2 l/m 0 min 2 min 0 W/m 10,5 km/h (2 Bft) 93,62 %
24.01.2016 06:32 3,3 C 3,3 C 2,2 C 94 % 2 lf 1030,5 hPa 0,0 l/m 0 min 2 min 0 W/m 14,6 km/h (3 Bft) 97,87 %
24.01.2016 06:34 3,3 C 3,3 C 2,2 C 94 % 2 lf 1030,5 hPa 0,0 l/m 0 min 2 min 0 W/m 16,7 km/h (3 Bft) 97,87 %
24.01.2016 06:36 3,3 C 3,3 C 2,2 C 94 % 1 lf 1030,5 hPa 0,0 l/m 0 min 0 min 0 W/m 12,6 km/h (3 Bft) 95,74 %
24.01.2016 06:38 3,3 C 3,3 C 2,2 C 94 % 1 lf 1030,5 hPa 0,0 l/m 0 min 0 min 0 W/m 10,5 km/h (2 Bft) 95,74 %
24.01.2016 06:40 3,3 C 3,3 C 2,2 C 94 % 0 lf 1030,4 hPa 0,0 l/m 0 min 0 min 0 W/m 12,6 km/h (3 Bft) 97,83 %
24.01.2016 06:42 3,3 C 3,3 C 2,2 C 94 % 0 lf 1030,4 hPa 0,0 l/m 0 min 0 min 0 W/m 14,6 km/h (3 Bft) 93,62 %
24.01.2016 06:44 3,3 C 3,3 C 2,2 C 94 % 0 lf 1030,3 hPa 0,0 l/m 0 min 0 min 0 W/m 18,8 km/h (3 Bft) 97,87 %
24.01.2016 06:46 3,3 C 3,3 C 2,2 C 94 % 0 lf 1030,3 hPa 0,0 l/m 0 min 2 min 0 W/m 12,6 km/h (3 Bft) 95,74 %
24.01.2016 06:48 3,3 C 3,3 C 2,2 C 94 % 0 lf 1030,3 hPa 0,0 l/m 0 min 2 min 0 W/m 14,6 km/h (3 Bft) 97,87 %
24.01.2016 06:50 3,3 C 3,3 C 1,7 C 94 % 0 lf 1030,4 hPa 0,0 l/m 0 min 2 min 0 W/m 12,6 km/h (3 Bft) 97,87 %
24.01.2016 06:52 3,3 C 3,3 C 1,7 C 94 % 0 lf 1030,4 hPa 0,0 l/m 0 min 2 min 0 W/m 10,5 km/h (2 Bft) 97,83 %
24.01.2016 06:54 3,3 C 3,3 C 1,7 C 94 % 0 lf 1030,4 hPa 0,0 l/m 0 min 2 min 0 W/m 12,6 km/h (3 Bft) 93,62 %
24.01.2016 06:56 3,3 C 3,3 C 1,7 C 94 % 0 lf 1030,3 hPa 0,0 l/m 0 min 2 min 0 W/m 14,6 km/h (3 Bft) 97,87 %
24.01.2016 06:58 3,3 C 3,3 C 1,7 C 94 % 0 lf 1030,3 hPa 0,0 l/m 0 min 2 min 0 W/m 8,4 km/h (2 Bft) 93,62 %
24.01.2016 07:00 3,4 C 3,3 C 1,7 C 94 % 0 lf 1030,3 hPa 0,0 l/m 0 min 2 min 0 W/m 12,6 km/h (3 Bft) 93,62 %
24.01.2016 07:02 3,4 C 3,3 C 1,7 C 94 % 0 lf 1030,3 hPa 0,0 l/m 0 min 2 min 0 W/m 14,6 km/h (3 Bft) 97,83 %
24.01.2016 07:04 3,4 C 3,3 C 1,7 C 95 % 0 lf 1030,3 hPa 0,0 l/m 0 min 0 min 0 W/m 10,5 km/h (2 Bft) 91,49 %
24.01.2016 07:06 3,4 C 3,3 C 1,7 C 95 % 0 lf 1030,3 hPa 0,0 l/m 0 min 0 min 0 W/m 10,5 km/h (2 Bft) 97,87 %
24.01.2016 07:08 3,4 C 3,3 C 1,7 C 95 % 0 lf 1030,2 hPa 0,0 l/m 0 min 0 min 0 W/m 12,6 km/h (3 Bft) 97,87 %
24.01.2016 07:10 3,4 C 3,3 C 1,7 C 95 % 0 lf 1030,1 hPa 0,0 l/m 0 min 0 min 0 W/m 12,6 km/h (3 Bft) 97,87 %
24.01.2016 07:12 3,4 C 3,3 C 1,7 C 95 % 0 lf 1030,1 hPa 0,0 l/m 0 min 0 min 0 W/m 10,5 km/h (2 Bft) 95,74 %
24.01.2016 07:14 3,4 C 3,3 C 1,7 C 95 % 0 lf 1030,0 hPa 0,0 l/m 0 min 0 min 0 W/m 12,6 km/h (3 Bft) 97,83 %
24.01.2016 07:16 3,4 C 3,3 C 1,7 C 95 % 0 lf 1029,9 hPa 0,0 l/m 0 min 0 min 0 W/m 12,6 km/h (3 Bft) 93,62 %
24.01.2016 07:18 3,4 C 3,3 C 1,7 C 95 % 0 lf 1030,0 hPa 0,0 l/m 0 min 0 min 0 W/m 10,5 km/h (2 Bft) 97,87 %
24.01.2016 07:20 3,4 C 3,3 C 2,2 C 95 % 0 lf 1029,9 hPa 0,2 l/m 0 min 0 min 0 W/m 10,5 km/h (2 Bft) 95,74 %
24.01.2016 07:22 3,4 C 3,3 C 2,2 C 95 % 0 lf 1029,9 hPa 0,0 l/m 0 min 0 min 0 W/m 12,6 km/h (3 Bft) 97,87 %
24.01.2016 07:24 3,4 C 3,3 C 2,2 C 95 % 0 lf 1030,0 hPa 0,0 l/m 0 min 0 min 0 W/m 10,5 km/h (2 Bft) 100,00 %
24.01.2016 07:26 3,4 C 3,3 C 2,2 C 95 % 0 lf 1029,9 hPa 0,0 l/m 0 min 0 min 0 W/m 10,5 km/h (2 Bft) 100,00 %
24.01.2016 07:28 3,4 C 3,3 C 2,2 C 95 % 0 lf 1029,9 hPa 0,0 l/m 0 min 0 min 0 W/m 12,6 km/h (3 Bft) 100,00 %
24.01.2016 07:30 3,4 C 3,3 C 2,2 C 95 % 0 lf 1029,9 hPa 0,0 l/m 0 min 0 min 0 W/m 12,6 km/h (3 Bft) 100,00 %
24.01.2016 07:32 3,4 C 3,3 C 2,2 C 95 % 0 lf 1029,9 hPa 0,0 l/m 0 min 0 min 0 W/m 16,7 km/h (3 Bft) 91,49 %
24.01.2016 07:34 3,4 C 3,3 C 2,2 C 95 % 0 lf 1029,9 hPa 0,0 l/m 0 min 0 min 0 W/m 8,4 km/h (2 Bft) 95,74 %
24.01.2016 07:36 3,4 C 3,3 C 2,2 C 95 % 0 lf 1029,8 hPa 0,0 l/m 0 min 0 min 0 W/m 12,6 km/h (3 Bft) 97,87 %
24.01.2016 07:38 3,4 C 3,3 C 2,2 C 95 % 0 lf 1029,9 hPa 0,0 l/m 0 min 0 min 0 W/m 12,6 km/h (3 Bft) 100,00 %
24.01.2016 07:40 3,4 C 3,3 C 2,2 C 95 % 0 lf 1029,9 hPa 0,0 l/m 0 min 0 min 0 W/m 16,7 km/h (3 Bft) 97,87 %
24.01.2016 07:42 3,4 C 3,3 C 2,2 C 95 % 0 lf 1029,9 hPa 0,0 l/m 0 min 0 min 0 W/m 14,6 km/h (3 Bft) 93,62 %
24.01.2016 07:44 3,4 C 3,3 C 2,2 C 95 % 0 lf 1029,9 hPa 0,0 l/m 0 min 0 min 0 W/m 12,6 km/h (3 Bft) 91,49 %
24.01.2016 07:46 3,4 C 3,3 C 2,2 C 95 % 0 lf 1030,1 hPa 0,0 l/m 0 min 0 min 0 W/m 12,6 km/h (3 Bft) 95,74 %
24.01.2016 07:48 3,4 C 3,3 C 2,2 C 95 % 0 lf 1030,0 hPa 0,0 l/m 0 min 0 min 0 W/m 10,5 km/h (2 Bft) 93,62 %
24.01.2016 07:50 3,4 C 3,3 C 2,2 C 95 % 0 lf 1030,2 hPa 0,0 l/m 0 min 0 min 0 W/m 10,5 km/h (2 Bft) 93,48 %
24.01.2016 07:52 3,4 C 3,3 C 2,2 C 95 % 0 lf 1030,1 hPa 0,0 l/m 0 min 0 min 0 W/m 8,4 km/h (2 Bft) 95,74 %
24.01.2016 07:54 3,4 C 3,3 C 2,2 C 95 % 0 lf 1030,2 hPa 0,0 l/m 0 min 0 min 0 W/m 10,5 km/h (2 Bft) 95,74 %
24.01.2016 07:56 3,4 C 3,3 C 2,2 C 95 % 0 lf 1030,2 hPa 0,0 l/m 0 min 0 min 0 W/m 12,6 km/h (3 Bft) 91,49 %
24.01.2016 07:58 3,4 C 3,3 C 2,2 C 95 % 0 lf 1030,3 hPa 0,0 l/m 0 min 0 min 0 W/m 10,5 km/h (2 Bft) 95,74 %
24.01.2016 08:00 3,4 C 3,3 C 2,2 C 95 % 0 lf 1030,2 hPa 0,0 l/m 0 min 0 min 0 W/m 6,3 km/h (2 Bft) 95,74 %
24.01.2016 08:02 3,4 C 3,3 C 2,2 C 95 % 0 lf 1030,2 hPa 0,0 l/m 0 min 0 min 0 W/m 8,4 km/h (2 Bft) 91,49 %
24.01.2016 08:04 3,5 C 3,3 C 2,2 C 95 % 0 lf 1030,2 hPa 0,0 l/m 0 min 0 min 0 W/m 6,3 km/h (2 Bft) 91,49 %
24.01.2016 08:06 3,5 C 3,3 C 2,2 C 95 % 0 lf 1030,1 hPa 0,0 l/m 0 min 0 min 0 W/m 8,4 km/h (2 Bft) 91,49 %
24.01.2016 08:08 3,5 C 3,3 C 2,2 C 95 % 1 lf 1030,0 hPa 0,0 l/m 0 min 0 min 0 W/m 10,5 km/h (2 Bft) 95,74 %
24.01.2016 08:10 3,5 C 3,3 C 2,2 C 95 % 0 lf 1030,0 hPa 0,0 l/m 0 min 0 min 0 W/m 12,6 km/h (3 Bft) 95,74 %
24.01.2016 08:12 3,5 C 3,3 C 2,2 C 95 % 1 lf 1029,9 hPa 0,0 l/m 0 min 0 min 0 W/m 12,6 km/h (3 Bft) 91,30 %
24.01.2016 08:14 3,5 C 3,3 C 2,2 C 95 % 0 lf 1029,9 hPa 0,0 l/m 0 min 0 min 0 W/m 16,7 km/h (3 Bft) 95,74 %
24.01.2016 08:16 3,5 C 3,3 C 2,2 C 95 % 0 lf 1029,9 hPa 0,0 l/m 0 min 0 min 0 W/m 16,7 km/h (3 Bft) 95,74 %
24.01.2016 08:18 3,5 C 3,3 C 2,2 C 96 % 0 lf 1029,8 hPa 0,0 l/m 0 min 0 min 0 W/m 16,7 km/h (3 Bft) 91,49 %
24.01.2016 08:20 3,5 C 3,3 C 2,2 C 96 % 0 lf 1029,7 hPa 0,0 l/m 0 min 0 min 0 W/m 18,8 km/h (3 Bft) 93,62 %
24.01.2016 08:22 3,6 C 3,3 C 2,2 C 96 % 1 lf 1029,7 hPa 0,0 l/m 0 min 0 min 2 W/m 16,7 km/h (3 Bft) 95,74 %
24.01.2016 08:24 3,6 C 3,3 C 2,2 C 96 % 1 lf 1029,8 hPa 0,0 l/m 0 min 0 min 5 W/m 12,6 km/h (3 Bft) 95,65 %
24.01.2016 08:26 3,6 C 3,9 C 2,2 C 96 % 0 lf 1029,8 hPa 0,0 l/m 0 min 0 min 5 W/m 14,6 km/h (3 Bft) 97,87 %
24.01.2016 08:28 3,6 C 3,9 C 2,2 C 96 % 0 lf 1029,7 hPa 0,0 l/m 0 min 0 min 5 W/m 14,6 km/h (3 Bft) 97,87 %
24.01.2016 08:30 3,6 C 3,9 C 2,2 C 96 % 0 lf 1029,6 hPa 0,0 l/m 0 min 0 min 5 W/m 16,7 km/h (3 Bft) 97,87 %
24.01.2016 08:32 3,6 C 3,9 C 2,2 C 96 % 0 lf 1029,6 hPa 0,0 l/m 0 min 0 min 7 W/m 18,8 km/h (3 Bft) 97,87 %
24.01.2016 08:34 3,6 C 3,9 C 2,2 C 96 % 0 lf 1029,6 hPa 0,0 l/m 0 min 0 min 7 W/m 12,6 km/h (3 Bft) 97,87 %
24.01.2016 08:36 3,6 C 3,9 C 2,2 C 96 % 0 lf 1029,7 hPa 0,0 l/m 0 min 0 min 7 W/m 14,6 km/h (3 Bft) 93,48 %
24.01.2016 08:38 3,6 C 3,9 C 2,2 C 96 % 0 lf 1029,7 hPa 0,0 l/m 0 min 0 min 7 W/m 14,6 km/h (3 Bft) 97,87 %
24.01.2016 08:40 3,6 C 3,9 C 2,2 C 96 % 0 lf 1029,8 hPa 0,0 l/m 0 min 0 min 7 W/m 14,6 km/h (3 Bft) 93,62 %
24.01.2016 08:42 3,7 C 3,9 C 2,2 C 96 % 0 lf 1029,8 hPa 0,0 l/m 0 min 0 min 7 W/m 10,5 km/h (2 Bft) 97,87 %
24.01.2016 08:44 3,7 C 3,9 C 2,2 C 96 % 0 lf 1029,8 hPa 0,0 l/m 0 min 0 min 8 W/m 10,5 km/h (2 Bft) 97,87 %
24.01.2016 08:46 3,7 C 3,9 C 2,2 C 96 % 0 lf 1029,8 hPa 0,0 l/m 0 min 0 min 9 W/m 8,4 km/h (2 Bft) 97,87 %
24.01.2016 08:48 3,7 C 3,9 C 2,2 C 96 % 0 lf 1029,9 hPa 0,0 l/m 0 min 0 min 9 W/m 10,5 km/h (2 Bft) 95,65 %
24.01.2016 08:50 3,7 C 3,9 C 2,2 C 96 % 0 lf 1029,8 hPa 0,0 l/m 0 min 0 min 10 W/m 12,6 km/h (3 Bft) 95,74 %
24.01.2016 08:52 3,7 C 3,9 C 2,8 C 96 % 0 lf 1029,7 hPa 0,0 l/m 0 min 0 min 11 W/m 16,7 km/h (3 Bft) 95,74 %
24.01.2016 08:54 3,7 C 3,9 C 2,8 C 96 % 0 lf 1029,7 hPa 0,0 l/m 0 min 0 min 11 W/m 12,6 km/h (3 Bft) 95,74 %
24.01.2016 08:56 3,8 C 3,9 C 2,8 C 96 % 0 lf 1029,8 hPa 0,0 l/m 0 min 0 min 12 W/m 14,6 km/h (3 Bft) 100,00 %
24.01.2016 08:58 3,8 C 3,9 C 2,8 C 96 % 0 lf 1029,7 hPa 0,0 l/m 0 min 0 min 14 W/m 14,6 km/h (3 Bft) 97,87 %
24.01.2016 09:00 3,8 C 3,9 C 2,8 C 96 % 0 lf 1029,7 hPa 0,0 l/m 0 min 0 min 16 W/m 18,8 km/h (3 Bft) 100,00 %
24.01.2016 09:02 3,8 C 3,9 C 2,8 C 96 % 0 lf 1029,6 hPa 0,0 l/m 0 min 0 min 23 W/m 16,7 km/h (3 Bft) 100,00 %
24.01.2016 09:04 3,8 C 4,4 C 2,8 C 96 % 0 lf 1029,6 hPa 0,0 l/m 0 min 0 min 29 W/m 18,8 km/h (3 Bft) 97,87 %
24.01.2016 09:06 3,9 C 4,4 C 2,8 C 96 % 0 lf 1029,6 hPa 0,0 l/m 0 min 0 min 27 W/m 18,8 km/h (3 Bft) 100,00 %
24.01.2016 09:08 3,9 C 4,4 C 2,8 C 96 % 0 lf 1029,5 hPa 0,0 l/m 0 min 0 min 25 W/m 16,7 km/h (3 Bft) 100,00 %
24.01.2016 09:10 3,9 C 4,4 C 2,8 C 96 % 0 lf 1029,6 hPa 0,0 l/m 0 min 0 min 28 W/m 14,6 km/h (3 Bft) 100,00 %
24.01.2016 09:13 3,9 C 4,4 C 2,8 C 96 % 0 lf 1029,6 hPa 0,0 l/m 0 min 0 min 38 W/m 16,7 km/h (3 Bft) 97,18 %
24.01.2016 09:14 4,0 C 4,4 C 2,8 C 96 % 0 lf 1029,6 hPa 0,0 l/m 0 min 0 min 37 W/m 12,6 km/h (3 Bft) 95,65 %
24.01.2016 09:16 4,0 C 4,4 C 2,8 C 96 % 0 lf 1029,6 hPa 0,0 l/m 0 min 0 min 38 W/m 18,8 km/h (3 Bft) 95,74 %
24.01.2016 09:18 4,0 C 4,4 C 2,8 C 96 % 0 lf 1029,6 hPa 0,0 l/m 0 min 0 min 38 W/m 18,8 km/h (3 Bft) 100,00 %
24.01.2016 09:20 4,1 C 4,4 C 2,8 C 96 % 0 lf 1029,6 hPa 0,0 l/m 0 min 0 min 37 W/m 14,6 km/h (3 Bft) 97,87 %
24.01.2016 09:23 4,1 C 4,4 C 2,8 C 96 % 0 lf 1029,6 hPa 0,0 l/m 0 min 0 min 39 W/m 16,7 km/h (3 Bft) 98,57 %
24.01.2016 09:24 4,1 C 4,4 C 2,8 C 96 % 0 lf 1029,6 hPa 0,0 l/m 0 min 0 min 39 W/m 14,6 km/h (3 Bft) 100,00 %
24.01.2016 09:26 4,1 C 4,4 C 3,3 C 96 % 0 lf 1029,6 hPa 0,0 l/m 0 min 0 min 37 W/m 16,7 km/h (3 Bft) 95,74 %
24.01.2016 09:28 4,2 C 4,4 C 3,3 C 96 % 0 lf 1029,6 hPa 0,0 l/m 0 min 0 min 37 W/m 25,1 km/h (4 Bft) 97,87 %
24.01.2016 09:30 4,2 C 4,4 C 3,3 C 96 % 0 lf 1029,5 hPa 0,0 l/m 0 min 0 min 42 W/m 23,0 km/h (4 Bft) 93,62 %
24.01.2016 09:32 4,2 C 4,4 C 3,3 C 96 % 0 lf 1029,6 hPa 0,0 l/m 0 min 0 min 51 W/m 18,8 km/h (3 Bft) 97,87 %
24.01.2016 09:34 4,2 C 4,4 C 3,3 C 96 % 0 lf 1029,6 hPa 0,0 l/m 0 min 0 min 66 W/m 18,8 km/h (3 Bft) 97,83 %
24.01.2016 09:36 4,3 C 5,0 C 3,3 C 96 % 0 lf 1029,6 hPa 0,0 l/m 0 min 0 min 70 W/m 16,7 km/h (3 Bft) 95,74 %
24.01.2016 09:38 4,3 C 5,0 C 3,3 C 96 % 0 lf 1029,6 hPa 0,0 l/m 0 min 0 min 66 W/m 20,9 km/h (4 Bft) 95,74 %
24.01.2016 09:40 4,3 C 5,0 C 3,3 C 96 % 0 lf 1029,6 hPa 0,0 l/m 0 min 0 min 66 W/m 16,7 km/h (3 Bft) 97,87 %
24.01.2016 09:42 4,4 C 5,0 C 3,3 C 96 % 0 lf 1029,6 hPa 0,0 l/m 0 min 0 min 66 W/m 12,6 km/h (3 Bft) 97,87 %
24.01.2016 09:44 4,4 C 5,0 C 3,3 C 96 % 0 lf 1029,6 hPa 0,0 l/m 0 min 0 min 76 W/m 18,8 km/h (3 Bft) 97,92 %
24.01.2016 09:46 4,4 C 5,0 C 3,3 C 96 % 0 lf 1029,6 hPa 0,0 l/m 0 min 0 min 66 W/m 14,6 km/h (3 Bft) 97,14 %
24.01.2016 09:48 4,5 C 5,0 C 3,3 C 96 % 0 lf 1029,6 hPa 0,0 l/m 0 min 0 min 52 W/m 18,8 km/h (3 Bft) 95,74 %
24.01.2016 09:50 4,5 C 5,0 C 3,3 C 96 % 0 lf 1029,5 hPa 0,0 l/m 0 min 2 min 48 W/m 14,6 km/h (3 Bft) 97,87 %
24.01.2016 09:52 4,6 C 5,0 C 3,3 C 96 % 0 lf 1029,4 hPa 0,0 l/m 0 min 2 min 55 W/m 16,7 km/h (3 Bft) 97,83 %
24.01.2016 09:54 4,6 C 5,0 C 3,3 C 96 % 0 lf 1029,3 hPa 0,0 l/m 0 min 0 min 54 W/m 12,6 km/h (3 Bft) 96,36 %
24.01.2016 09:56 4,6 C 5,0 C 3,3 C 96 % 0 lf 1029,3 hPa 0,0 l/m 0 min 0 min 49 W/m 10,5 km/h (2 Bft) 98,00 %
24.01.2016 09:58 4,7 C 5,0 C 3,3 C 96 % 0 lf 1029,3 hPa 0,0 l/m 0 min 2 min 47 W/m 18,8 km/h (3 Bft) 97,92 %
24.01.2016 10:00 4,7 C 5,0 C 3,3 C 96 % 0 lf 1029,5 hPa 0,0 l/m 0 min 2 min 46 W/m 14,6 km/h (3 Bft) 97,37 %
24.01.2016 10:02 4,7 C 5,0 C 3,3 C 96 % 0 lf 1029,5 hPa 0,0 l/m 0 min 2 min 46 W/m 12,6 km/h (3 Bft) 100,00 %
24.01.2016 10:04 4,7 C 5,0 C 3,3 C 96 % 0 lf 1029,5 hPa 0,0 l/m 0 min 0 min 51 W/m 12,6 km/h (3 Bft) 96,00 %
24.01.2016 10:06 4,8 C 5,0 C 3,3 C 96 % 0 lf 1029,4 hPa 0,0 l/m 0 min 2 min 51 W/m 16,7 km/h (3 Bft) 97,87 %
24.01.2016 10:08 4,8 C 5,0 C 3,3 C 95 % 0 lf 1029,5 hPa 0,0 l/m 0 min 0 min 47 W/m 14,6 km/h (3 Bft) 97,87 %
24.01.2016 10:10 4,8 C 5,0 C 3,3 C 95 % 0 lf 1029,5 hPa 0,0 l/m 0 min 0 min 51 W/m 12,6 km/h (3 Bft) 100,00 %
24.01.2016 10:12 4,8 C 5,0 C 3,9 C 95 % 0 lf 1029,6 hPa 0,0 l/m 0 min 2 min 56 W/m 12,6 km/h (3 Bft) 98,15 %
24.01.2016 10:14 4,8 C 5,0 C 3,9 C 95 % 0 lf 1029,5 hPa 0,0 l/m 0 min 2 min 58 W/m 14,6 km/h (3 Bft) 97,87 %
24.01.2016 10:16 4,8 C 5,0 C 3,9 C 95 % 0 lf 1029,5 hPa 0,0 l/m 0 min 2 min 58 W/m 14,6 km/h (3 Bft) 95,74 %
24.01.2016 10:18 4,8 C 5,0 C 3,9 C 95 % 0 lf 1029,5 hPa 0,0 l/m 0 min 2 min 54 W/m 10,5 km/h (2 Bft) 97,37 %
24.01.2016 10:20 4,9 C 5,0 C 3,9 C 95 % 4 lf 1029,5 hPa 0,0 l/m 0 min 2 min 53 W/m 16,7 km/h (3 Bft) 95,83 %
24.01.2016 10:22 4,9 C 4,4 C 3,3 C 95 % 4 lf 1029,5 hPa 0,0 l/m 0 min 2 min 58 W/m 14,6 km/h (3 Bft) 95,74 %
24.01.2016 10:24 4,9 C 5,0 C 3,9 C 95 % 7 lf 1029,6 hPa 0,0 l/m 0 min 2 min 63 W/m 10,5 km/h (2 Bft) 97,87 %
24.01.2016 10:26 4,9 C 5,0 C 3,9 C 95 % 8 lf 1029,6 hPa 0,0 l/m 0 min 2 min 57 W/m 12,6 km/h (3 Bft) 91,30 %
24.01.2016 10:28 4,9 C 5,0 C 3,9 C 95 % 7 lf 1029,6 hPa 0,0 l/m 0 min 2 min 53 W/m 10,5 km/h (2 Bft) 91,49 %
24.01.2016 10:30 4,9 C 5,0 C 3,9 C 95 % 7 lf 1029,6 hPa 0,0 l/m 0 min 2 min 50 W/m 10,5 km/h (2 Bft) 95,74 %
24.01.2016 10:32 4,9 C 5,0 C 3,9 C 95 % 8 lf 1029,6 hPa 0,0 l/m 0 min 2 min 53 W/m 12,6 km/h (3 Bft) 93,62 %
24.01.2016 10:34 4,9 C 5,0 C 3,9 C 95 % 7 lf 1029,6 hPa 0,0 l/m 0 min 2 min 69 W/m 8,4 km/h (2 Bft) 93,62 %
24.01.2016 10:36 4,9 C 5,0 C 3,9 C 95 % 5 lf 1029,6 hPa 0,0 l/m 0 min 0 min 81 W/m 12,6 km/h (3 Bft) 95,74 %
24.01.2016 10:38 5,0 C 5,0 C 3,9 C 95 % 6 lf 1029,6 hPa 0,0 l/m 0 min 2 min 77 W/m 10,5 km/h (2 Bft) 91,30 %
24.01.2016 10:40 5,0 C 5,0 C 3,9 C 95 % 8 lf 1029,7 hPa 0,0 l/m 0 min 2 min 62 W/m 8,4 km/h (2 Bft) 94,55 %
24.01.2016 10:42 5,0 C 5,0 C 3,9 C 95 % 10 lf 1029,6 hPa 0,2 l/m 0 min 0 min 54 W/m 12,6 km/h (3 Bft) 94,74 %
24.01.2016 10:44 5,1 C 5,0 C 3,9 C 95 % 12 lf 1029,7 hPa 0,0 l/m 0 min 0 min 55 W/m 6,3 km/h (2 Bft) 95,83 %
24.01.2016 10:46 5,1 C 5,0 C 3,9 C 95 % 12 lf 1029,7 hPa 0,0 l/m 0 min 0 min 54 W/m 8,4 km/h (2 Bft) 97,87 %
24.01.2016 10:48 5,1 C 5,0 C 3,9 C 95 % 11 lf 1029,7 hPa 0,0 l/m 0 min 0 min 57 W/m 8,4 km/h (2 Bft) 96,30 %
24.01.2016 10:50 5,1 C 5,0 C 3,9 C 95 % 10 lf 1029,7 hPa 0,0 l/m 0 min 0 min 59 W/m 8,4 km/h (2 Bft) 95,74 %
24.01.2016 10:52 5,1 C 5,0 C 3,9 C 95 % 9 lf 1029,7 hPa 0,0 l/m 0 min 0 min 57 W/m 8,4 km/h (2 Bft) 91,49 %
24.01.2016 10:54 5,1 C 5,0 C 3,9 C 95 % 7 lf 1029,7 hPa 0,0 l/m 0 min 0 min 57 W/m 12,6 km/h (3 Bft) 93,62 %
24.01.2016 10:56 5,2 C 5,0 C 3,9 C 95 % 6 lf 1029,7 hPa 0,0 l/m 0 min 0 min 61 W/m 8,4 km/h (2 Bft) 89,47 %
24.01.2016 10:58 5,2 C 5,0 C 3,9 C 95 % 4 lf 1029,7 hPa 0,0 l/m 0 min 0 min 62 W/m 12,6 km/h (3 Bft) 93,62 %
24.01.2016 11:00 5,2 C 5,6 C 3,9 C 96 % 4 lf 1029,8 hPa 0,0 l/m 0 min 0 min 62 W/m 10,5 km/h (2 Bft) 95,92 %
24.01.2016 11:02 5,2 C 5,6 C 4,4 C 96 % 4 lf 1029,7 hPa 0,0 l/m 0 min 0 min 63 W/m 8,4 km/h (2 Bft) 96,00 %
24.01.2016 11:04 5,3 C 5,6 C 4,4 C 96 % 3 lf 1029,7 hPa 0,0 l/m 0 min 0 min 65 W/m 8,4 km/h (2 Bft) 96,00 %
24.01.2016 11:06 5,3 C 5,6 C 4,4 C 96 % 3 lf 1029,7 hPa 0,0 l/m 0 min 0 min 67 W/m 6,3 km/h (2 Bft) 95,74 %
24.01.2016 11:08 5,3 C 5,6 C 4,4 C 96 % 3 lf 1029,9 hPa 0,0 l/m 0 min 0 min 67 W/m 6,3 km/h (2 Bft) 94,44 %
24.01.2016 11:10 5,3 C 5,6 C 4,4 C 96 % 3 lf 1029,9 hPa 0,0 l/m 0 min 0 min 57 W/m 6,3 km/h (2 Bft) 93,62 %
24.01.2016 11:12 5,4 C 5,6 C 4,4 C 96 % 2 lf 1029,8 hPa 0,0 l/m 0 min 0 min 51 W/m 6,3 km/h (2 Bft) 95,65 %
24.01.2016 11:14 5,4 C 5,6 C 4,4 C 96 % 1 lf 1029,8 hPa 0,0 l/m 0 min 0 min 48 W/m 8,4 km/h (2 Bft) 94,55 %
24.01.2016 11:16 5,4 C 5,6 C 4,4 C 96 % 1 lf 1029,8 hPa 0,0 l/m 0 min 0 min 57 W/m 8,4 km/h (2 Bft) 93,62 %
24.01.2016 11:18 5,4 C 5,6 C 4,4 C 96 % 1 lf 1029,7 hPa 0,0 l/m 0 min 0 min 68 W/m 10,5 km/h (2 Bft) 91,49 %
24.01.2016 11:20 5,5 C 5,6 C 4,4 C 96 % 0 lf 1029,7 hPa 0,0 l/m 0 min 0 min 72 W/m 10,5 km/h (2 Bft) 93,62 %
24.01.2016 11:22 5,5 C 5,6 C 4,4 C 96 % 0 lf 1029,7 hPa 0,0 l/m 0 min 0 min 68 W/m 10,5 km/h (2 Bft) 93,88 %
24.01.2016 11:24 5,6 C 5,6 C 4,4 C 96 % 0 lf 1029,7 hPa 0,0 l/m 0 min 0 min 68 W/m 14,6 km/h (3 Bft) 93,62 %
24.01.2016 11:26 5,6 C 5,6 C 4,4 C 96 % 0 lf 1029,7 hPa 0,0 l/m 0 min 0 min 75 W/m 6,3 km/h (2 Bft) 91,49 %
24.01.2016 11:28 5,6 C 6,1 C 4,4 C 96 % 1 lf 1029,6 hPa 0,0 l/m 0 min 0 min 76 W/m 10,5 km/h (2 Bft) 89,36 %
24.01.2016 11:30 5,6 C 5,6 C 4,4 C 96 % 1 lf 1029,7 hPa 0,0 l/m 0 min 0 min 70 W/m 10,5 km/h (2 Bft) 94,44 %
24.01.2016 11:32 5,7 C 6,1 C 4,4 C 96 % 1 lf 1029,7 hPa 0,0 l/m 0 min 0 min 66 W/m 10,5 km/h (2 Bft) 89,36 %
24.01.2016 11:34 5,7 C 6,1 C 4,4 C 96 % 1 lf 1029,7 hPa 0,0 l/m 0 min 0 min 63 W/m 10,5 km/h (2 Bft) 91,49 %
24.01.2016 11:36 5,7 C 6,1 C 5,0 C 96 % 3 lf 1029,7 hPa 0,0 l/m 0 min 2 min 61 W/m 10,5 km/h (2 Bft) 95,74 %
24.01.2016 11:38 5,7 C 6,1 C 5,0 C 96 % 4 lf 1029,7 hPa 0,0 l/m 0 min 2 min 54 W/m 8,4 km/h (2 Bft) 93,48 %
24.01.2016 11:40 5,8 C 6,1 C 5,0 C 96 % 5 lf 1029,7 hPa 0,0 l/m 0 min 0 min 50 W/m 6,3 km/h (2 Bft) 93,62 %
24.01.2016 11:42 5,8 C 6,1 C 5,0 C 96 % 4 lf 1029,5 hPa 0,0 l/m 0 min 0 min 63 W/m 12,6 km/h (3 Bft) 95,74 %
24.01.2016 11:44 5,8 C 6,1 C 5,0 C 96 % 3 lf 1029,5 hPa 0,0 l/m 0 min 0 min 68 W/m 14,6 km/h (3 Bft) 90,91 %
24.01.2016 11:46 5,9 C 6,1 C 5,0 C 96 % 3 lf 1029,5 hPa 0,0 l/m 0 min 0 min 76 W/m 14,6 km/h (3 Bft) 93,48 %
24.01.2016 11:48 5,9 C 6,1 C 5,0 C 96 % 3 lf 1029,3 hPa 0,0 l/m 0 min 0 min 86 W/m 14,6 km/h (3 Bft) 95,74 %
24.01.2016 11:50 5,9 C 6,1 C 5,0 C 96 % 2 lf 1029,3 hPa 0,0 l/m 0 min 0 min 87 W/m 10,5 km/h (2 Bft) 97,87 %
24.01.2016 11:52 5,9 C 6,1 C 5,0 C 96 % 1 lf 1029,3 hPa 0,0 l/m 0 min 0 min 89 W/m 14,6 km/h (3 Bft) 100,00 %
24.01.2016 11:54 6,0 C 6,1 C 5,0 C 96 % 1 lf 1029,3 hPa 0,0 l/m 0 min 0 min 87 W/m 10,5 km/h (2 Bft) 94,44 %
24.01.2016 11:56 6,1 C 6,1 C 5,0 C 96 % 0 lf 1029,2 hPa 0,0 l/m 0 min 0 min 85 W/m 14,6 km/h (3 Bft) 100,00 %
24.01.2016 11:58 6,1 C 6,7 C 5,0 C 96 % 0 lf 1029,2 hPa 0,0 l/m 0 min 0 min 84 W/m 12,6 km/h (3 Bft) 98,15 %
24.01.2016 12:00 6,1 C 6,7 C 5,0 C 97 % 0 lf 1029,2 hPa 0,0 l/m 0 min 0 min 79 W/m 16,7 km/h (3 Bft) 100,00 %
24.01.2016 12:02 6,2 C 6,7 C 5,6 C 97 % 0 lf 1029,2 hPa 0,0 l/m 0 min 0 min 75 W/m 16,7 km/h (3 Bft) 97,62 %
24.01.2016 12:04 6,2 C 6,7 C 5,0 C 97 % 0 lf 1029,2 hPa 0,0 l/m 0 min 0 min 81 W/m 18,8 km/h (3 Bft) 97,37 %
24.01.2016 12:06 6,2 C 6,7 C 5,6 C 97 % 0 lf 1029,2 hPa 0,0 l/m 0 min 0 min 92 W/m 12,6 km/h (3 Bft) 97,87 %
24.01.2016 12:08 6,3 C 6,7 C 5,6 C 97 % 0 lf 1029,2 hPa 0,0 l/m 0 min 0 min 85 W/m 10,5 km/h (2 Bft) 97,87 %
24.01.2016 12:10 6,3 C 6,7 C 5,6 C 97 % 1 lf 1029,2 hPa 0,0 l/m 0 min 0 min 62 W/m 12,6 km/h (3 Bft) 97,87 %
24.01.2016 12:12 6,3 C 6,7 C 5,6 C 97 % 0 lf 1029,2 hPa 0,0 l/m 0 min 0 min 46 W/m 14,6 km/h (3 Bft) 98,28 %
24.01.2016 12:14 6,4 C 6,7 C 5,0 C 97 % 0 lf 1029,2 hPa 0,0 l/m 0 min 0 min 44 W/m 12,6 km/h (3 Bft) 100,00 %
24.01.2016 12:16 6,4 C 6,7 C 5,0 C 97 % 0 lf 1029,3 hPa 0,0 l/m 0 min 0 min 40 W/m 12,6 km/h (3 Bft) 100,00 %
24.01.2016 12:18 6,4 C 6,7 C 5,0 C 97 % 0 lf 1029,2 hPa 0,0 l/m 0 min 0 min 40 W/m 10,5 km/h (2 Bft) 97,87 %
24.01.2016 12:20 6,4 C 6,7 C 5,0 C 97 % 0 lf 1029,2 hPa 0,0 l/m 0 min 0 min 34 W/m 10,5 km/h (2 Bft) 97,87 %
24.01.2016 12:22 6,4 C 6,7 C 5,0 C 97 % 0 lf 1029,3 hPa 0,0 l/m 0 min 0 min 32 W/m 12,6 km/h (3 Bft) 93,62 %
24.01.2016 12:24 6,4 C 6,7 C 5,0 C 97 % 1 lf 1029,2 hPa 0,0 l/m 0 min 0 min 32 W/m 12,6 km/h (3 Bft) 98,15 %
24.01.2016 12:26 6,4 C 6,7 C 5,0 C 97 % 3 lf 1029,3 hPa 0,0 l/m 0 min 0 min 27 W/m 6,3 km/h (2 Bft) 97,87 %
24.01.2016 12:28 6,4 C 6,7 C 5,0 C 97 % 4 lf 1029,3 hPa 0,0 l/m 0 min 0 min 23 W/m 8,4 km/h (2 Bft) 100,00 %
24.01.2016 12:30 6,4 C 6,7 C 5,0 C 97 % 3 lf 1029,3 hPa 0,0 l/m 0 min 0 min 21 W/m 6,3 km/h (2 Bft) 100,00 %
24.01.2016 12:32 6,4 C 6,7 C 5,0 C 97 % 4 lf 1029,3 hPa 0,0 l/m 0 min 0 min 21 W/m 6,3 km/h (2 Bft) 97,83 %
24.01.2016 12:34 6,4 C 6,7 C 5,0 C 97 % 6 lf 1029,2 hPa 0,0 l/m 0 min 0 min 25 W/m 8,4 km/h (2 Bft) 100,00 %
24.01.2016 12:36 6,4 C 6,7 C 5,0 C 97 % 9 lf 1029,2 hPa 0,0 l/m 0 min 0 min 29 W/m 10,5 km/h (2 Bft) 100,00 %
24.01.2016 12:38 6,5 C 6,7 C 5,0 C 97 % 13 lf 1029,2 hPa 0,0 l/m 0 min 0 min 36 W/m 6,3 km/h (2 Bft) 97,14 %
24.01.2016 12:40 6,5 C 6,7 C 5,0 C 97 % 15 lf 1029,2 hPa 0,0 l/m 0 min 0 min 41 W/m 8,4 km/h (2 Bft) 98,18 %
24.01.2016 12:42 6,5 C 6,7 C 5,0 C 97 % 15 lf 1029,2 hPa 0,0 l/m 0 min 0 min 43 W/m 8,4 km/h (2 Bft) 95,74 %
24.01.2016 12:44 6,5 C 6,7 C 5,0 C 97 % 15 lf 1029,2 hPa 0,0 l/m 0 min 0 min 40 W/m 10,5 km/h (2 Bft) 97,83 %
24.01.2016 12:46 6,5 C 6,7 C 5,0 C 97 % 15 lf 1029,2 hPa 0,0 l/m 0 min 0 min 42 W/m 8,4 km/h (2 Bft) 95,74 %
24.01.2016 12:48 6,6 C 6,7 C 5,6 C 97 % 15 lf 1029,1 hPa 0,0 l/m 0 min 0 min 50 W/m 8,4 km/h (2 Bft) 100,00 %
24.01.2016 12:50 6,6 C 6,7 C 5,6 C 97 % 15 lf 1029,1 hPa 0,0 l/m 0 min 0 min 51 W/m 12,6 km/h (3 Bft) 100,00 %
24.01.2016 12:52 6,6 C 6,7 C 5,6 C 97 % 15 lf 1029,1 hPa 0,0 l/m 0 min 0 min 50 W/m 10,5 km/h (2 Bft) 100,00 %
24.01.2016 12:54 6,6 C 6,7 C 5,6 C 97 % 15 lf 1029,1 hPa 0,0 l/m 0 min 0 min 50 W/m 12,6 km/h (3 Bft) 93,62 %
24.01.2016 12:56 6,6 C 6,7 C 5,6 C 97 % 15 lf 1029,1 hPa 0,0 l/m 0 min 0 min 48 W/m 12,6 km/h (3 Bft) 93,48 %
24.01.2016 12:58 6,6 C 6,7 C 5,6 C 97 % 15 lf 1029,0 hPa 0,0 l/m 0 min 0 min 51 W/m 14,6 km/h (3 Bft) 97,87 %
24.01.2016 13:00 6,7 C 6,7 C 5,6 C 97 % 15 lf 1029,0 hPa 0,0 l/m 0 min 0 min 47 W/m 10,5 km/h (2 Bft) 94,74 %
24.01.2016 13:02 6,7 C 6,7 C 5,6 C 97 % 15 lf 1029,0 hPa 0,0 l/m 0 min 0 min 45 W/m 10,5 km/h (2 Bft) 95,74 %
24.01.2016 13:04 6,7 C 6,7 C 5,6 C 97 % 15 lf 1029,0 hPa 0,0 l/m 0 min 0 min 47 W/m 10,5 km/h (2 Bft) 98,18 %
24.01.2016 13:06 6,7 C 6,7 C 5,6 C 97 % 15 lf 1029,0 hPa 0,0 l/m 0 min 0 min 49 W/m 12,6 km/h (3 Bft) 93,62 %
24.01.2016 13:08 6,7 C 7,2 C 5,6 C 97 % 15 lf 1029,0 hPa 0,0 l/m 0 min 0 min 50 W/m 8,4 km/h (2 Bft) 91,84 %
24.01.2016 13:10 6,8 C 7,2 C 5,6 C 97 % 15 lf 1029,0 hPa 0,0 l/m 0 min 0 min 45 W/m 8,4 km/h (2 Bft) 94,44 %
24.01.2016 13:12 6,8 C 7,2 C 5,6 C 97 % 15 lf 1029,1 hPa 0,0 l/m 0 min 0 min 43 W/m 8,4 km/h (2 Bft) 93,62 %
24.01.2016 13:14 6,8 C 7,2 C 5,6 C 97 % 15 lf 1029,1 hPa 0,0 l/m 0 min 0 min 40 W/m 14,6 km/h (3 Bft) 95,74 %
24.01.2016 13:16 6,8 C 7,2 C 5,6 C 97 % 15 lf 1029,1 hPa 0,0 l/m 0 min 0 min 37 W/m 16,7 km/h (3 Bft) 93,62 %
24.01.2016 13:18 6,8 C 7,2 C 5,6 C 97 % 15 lf 1029,0 hPa 0,0 l/m 0 min 0 min 41 W/m 10,5 km/h (2 Bft) 95,74 %
24.01.2016 13:20 6,9 C 7,2 C 5,6 C 97 % 15 lf 1028,9 hPa 0,0 l/m 0 min 0 min 42 W/m 10,5 km/h (2 Bft) 93,62 %
24.01.2016 13:22 6,9 C 7,2 C 5,6 C 97 % 15 lf 1028,9 hPa 0,0 l/m 0 min 0 min 46 W/m 18,8 km/h (3 Bft) 97,83 %
24.01.2016 13:24 6,9 C 7,2 C 5,6 C 97 % 15 lf 1028,9 hPa 0,0 l/m 0 min 0 min 44 W/m 16,7 km/h (3 Bft) 92,73 %
24.01.2016 13:26 6,9 C 7,2 C 5,6 C 97 % 15 lf 1028,9 hPa 0,0 l/m 0 min 0 min 41 W/m 10,5 km/h (2 Bft) 96,00 %
24.01.2016 13:28 6,9 C 7,2 C 5,6 C 97 % 15 lf 1029,0 hPa 0,0 l/m 0 min 0 min 37 W/m 14,6 km/h (3 Bft) 95,74 %
24.01.2016 13:30 7,0 C 7,2 C 5,6 C 97 % 15 lf 1029,0 hPa 0,0 l/m 0 min 0 min 34 W/m 14,6 km/h (3 Bft) 93,48 %
24.01.2016 13:32 7,0 C 7,2 C 5,6 C 97 % 15 lf 1029,0 hPa 0,0 l/m 0 min 2 min 33 W/m 16,7 km/h (3 Bft) 95,74 %
24.01.2016 13:34 7,1 C 7,2 C 5,6 C 97 % 15 lf 1028,9 hPa 0,0 l/m 0 min 2 min 40 W/m 12,6 km/h (3 Bft) 97,22 %
24.01.2016 13:36 7,1 C 7,2 C 5,6 C 97 % 15 lf 1028,9 hPa 0,0 l/m 0 min 2 min 46 W/m 14,6 km/h (3 Bft) 95,74 %
24.01.2016 13:38 7,1 C 7,2 C 5,6 C 97 % 15 lf 1028,9 hPa 0,0 l/m 0 min 2 min 47 W/m 14,6 km/h (3 Bft) 95,74 %
24.01.2016 13:40 7,1 C 7,2 C 6,1 C 97 % 15 lf 1028,9 hPa 0,0 l/m 0 min 2 min 49 W/m 14,6 km/h (3 Bft) 95,74 %
24.01.2016 13:42 7,1 C 7,2 C 6,1 C 97 % 15 lf 1028,9 hPa 0,0 l/m 0 min 2 min 47 W/m 12,6 km/h (3 Bft) 98,15 %
24.01.2016 13:44 7,2 C 7,2 C 6,1 C 97 % 15 lf 1028,8 hPa 0,0 l/m 0 min 2 min 49 W/m 8,4 km/h (2 Bft) 100,00 %
24.01.2016 13:46 7,2 C 7,2 C 6,1 C 97 % 15 lf 1028,8 hPa 0,0 l/m 0 min 0 min 47 W/m 12,6 km/h (3 Bft) 97,87 %
24.01.2016 13:48 7,2 C 7,2 C 6,1 C 97 % 15 lf 1028,8 hPa 0,0 l/m 0 min 0 min 43 W/m 10,5 km/h (2 Bft) 100,00 %
24.01.2016 13:50 7,2 C 7,2 C 6,1 C 97 % 15 lf 1028,8 hPa 0,0 l/m 0 min 0 min 46 W/m 8,4 km/h (2 Bft) 100,00 %
24.01.2016 13:52 7,2 C 7,2 C 6,1 C 97 % 15 lf 1028,8 hPa 0,0 l/m 0 min 0 min 41 W/m 10,5 km/h (2 Bft) 100,00 %
24.01.2016 13:54 7,2 C 7,2 C 6,1 C 97 % 15 lf 1028,8 hPa 0,0 l/m 0 min 0 min 40 W/m 12,6 km/h (3 Bft) 98,15 %
24.01.2016 13:56 7,3 C 7,2 C 6,1 C 97 % 15 lf 1028,8 hPa 0,0 l/m 0 min 0 min 40 W/m 8,4 km/h (2 Bft) 97,87 %
24.01.2016 13:58 7,3 C 7,2 C 6,1 C 97 % 15 lf 1028,7 hPa 0,0 l/m 0 min 0 min 41 W/m 8,4 km/h (2 Bft) 100,00 %
24.01.2016 14:00 7,3 C 7,2 C 6,1 C 97 % 15 lf 1028,6 hPa 0,2 l/m 0 min 0 min 42 W/m 18,8 km/h (3 Bft) 98,00 %
24.01.2016 14:02 7,3 C 7,2 C 6,1 C 97 % 15 lf 1028,7 hPa 0,0 l/m 0 min 0 min 40 W/m 12,6 km/h (3 Bft) 95,24 %
24.01.2016 14:04 7,3 C 7,2 C 6,1 C 97 % 15 lf 1028,6 hPa 0,0 l/m 0 min 0 min 41 W/m 8,4 km/h (2 Bft) 97,87 %
24.01.2016 14:06 7,3 C 7,8 C 6,1 C 97 % 15 lf 1028,6 hPa 0,0 l/m 0 min 0 min 36 W/m 8,4 km/h (2 Bft) 93,48 %
24.01.2016 14:08 7,3 C 7,2 C 6,1 C 97 % 15 lf 1028,5 hPa 0,0 l/m 0 min 0 min 32 W/m 14,6 km/h (3 Bft) 95,74 %
24.01.2016 14:10 7,3 C 7,2 C 6,1 C 97 % 15 lf 1028,5 hPa 0,0 l/m 0 min 0 min 27 W/m 8,4 km/h (2 Bft) 97,67 %
24.01.2016 14:12 7,4 C 7,2 C 6,1 C 98 % 15 lf 1028,6 hPa 0,0 l/m 0 min 0 min 25 W/m 14,6 km/h (3 Bft) 97,87 %
24.01.2016 14:14 7,4 C 7,2 C 6,1 C 98 % 15 lf 1028,5 hPa 0,0 l/m 0 min 0 min 26 W/m 14,6 km/h (3 Bft) 97,87 %
24.01.2016 14:16 7,4 C 7,2 C 6,1 C 98 % 15 lf 1028,5 hPa 0,0 l/m 0 min 0 min 29 W/m 16,7 km/h (3 Bft) 95,74 %
24.01.2016 14:18 7,4 C 7,2 C 6,1 C 98 % 15 lf 1028,4 hPa 0,0 l/m 0 min 0 min 32 W/m 12,6 km/h (3 Bft) 97,87 %
24.01.2016 14:20 7,4 C 7,2 C 6,1 C 98 % 15 lf 1028,4 hPa 0,0 l/m 0 min 0 min 32 W/m 16,7 km/h (3 Bft) 91,30 %
24.01.2016 14:22 7,4 C 7,2 C 6,1 C 98 % 15 lf 1028,3 hPa 0,0 l/m 0 min 0 min 32 W/m 10,5 km/h (2 Bft) 98,00 %
24.01.2016 14:24 7,4 C 7,2 C 6,1 C 98 % 15 lf 1028,4 hPa 0,0 l/m 0 min 0 min 29 W/m 14,6 km/h (3 Bft) 95,83 %
24.01.2016 14:26 7,4 C 7,2 C 6,1 C 98 % 15 lf 1028,4 hPa 0,0 l/m 0 min 0 min 27 W/m 12,6 km/h (3 Bft) 97,87 %
24.01.2016 14:28 7,4 C 7,2 C 6,1 C 98 % 15 lf 1028,2 hPa 0,0 l/m 0 min 0 min 24 W/m 14,6 km/h (3 Bft) 95,74 %
24.01.2016 14:30 7,4 C 7,2 C 6,1 C 98 % 15 lf 1028,2 hPa 0,0 l/m 0 min 0 min 24 W/m 8,4 km/h (2 Bft) 97,83 %
24.01.2016 14:32 7,4 C 7,2 C 6,1 C 98 % 15 lf 1028,3 hPa 0,0 l/m 0 min 0 min 22 W/m 10,5 km/h (2 Bft) 91,49 %
24.01.2016 14:34 7,5 C 7,2 C 6,1 C 98 % 15 lf 1028,3 hPa 0,0 l/m 0 min 0 min 22 W/m 10,5 km/h (2 Bft) 97,87 %
24.01.2016 14:36 7,5 C 7,2 C 6,1 C 98 % 15 lf 1028,3 hPa 0,0 l/m 0 min 0 min 19 W/m 10,5 km/h (2 Bft) 91,49 %
24.01.2016 14:38 7,5 C 7,2 C 6,1 C 98 % 15 lf 1028,3 hPa 0,0 l/m 0 min 0 min 17 W/m 16,7 km/h (3 Bft) 95,74 %
24.01.2016 14:40 7,5 C 7,2 C 6,1 C 98 % 15 lf 1028,3 hPa 0,0 l/m 0 min 0 min 18 W/m 16,7 km/h (3 Bft) 93,62 %
24.01.2016 14:42 7,5 C 7,2 C 6,1 C 98 % 15 lf 1028,3 hPa 0,0 l/m 0 min 0 min 18 W/m 14,6 km/h (3 Bft) 95,65 %
24.01.2016 14:44 7,5 C 7,2 C 6,1 C 98 % 15 lf 1028,4 hPa 0,0 l/m 0 min 0 min 16 W/m 12,6 km/h (3 Bft) 95,35 %
24.01.2016 14:46 7,5 C 7,2 C 6,1 C 98 % 15 lf 1028,4 hPa 0,0 l/m 0 min 0 min 14 W/m 8,4 km/h (2 Bft) 95,74 %
24.01.2016 14:48 7,5 C 7,2 C 6,1 C 98 % 15 lf 1028,3 hPa 0,0 l/m 0 min 0 min 12 W/m 10,5 km/h (2 Bft) 95,74 %
24.01.2016 14:50 7,5 C 7,2 C 6,1 C 98 % 15 lf 1028,3 hPa 0,0 l/m 0 min 0 min 12 W/m 10,5 km/h (2 Bft) 97,87 %
24.01.2016 14:52 7,5 C 7,2 C 6,1 C 98 % 15 lf 1028,2 hPa 0,0 l/m 0 min 0 min 12 W/m 8,4 km/h (2 Bft) 91,49 %
24.01.2016 14:54 7,5 C 7,2 C 6,1 C 98 % 15 lf 1028,2 hPa 0,0 l/m 0 min 0 min 14 W/m 14,6 km/h (3 Bft) 93,48 %
24.01.2016 14:56 7,5 C 7,8 C 6,1 C 98 % 15 lf 1028,2 hPa 0,0 l/m 0 min 0 min 13 W/m 14,6 km/h (3 Bft) 95,74 %
24.01.2016 14:58 7,5 C 7,2 C 6,1 C 98 % 15 lf 1028,2 hPa 0,0 l/m 0 min 0 min 15 W/m 10,5 km/h (2 Bft) 97,87 %
24.01.2016 15:00 7,5 C 7,8 C 6,1 C 98 % 15 lf 1028,2 hPa 0,0 l/m 0 min 2 min 16 W/m 6,3 km/h (2 Bft) 97,87 %
24.01.2016 15:02 7,5 C 7,8 C 6,1 C 98 % 15 lf 1028,1 hPa 0,0 l/m 0 min 2 min 15 W/m 8,4 km/h (2 Bft) 93,75 %
24.01.2016 15:04 7,5 C 7,8 C 6,1 C 98 % 15 lf 1028,1 hPa 0,0 l/m 0 min 2 min 14 W/m 10,5 km/h (2 Bft) 95,74 %
24.01.2016 15:06 7,5 C 7,8 C 6,1 C 98 % 15 lf 1028,1 hPa 0,0 l/m 0 min 0 min 14 W/m 14,6 km/h (3 Bft) 95,65 %
24.01.2016 15:08 7,6 C 7,8 C 6,1 C 98 % 15 lf 1028,1 hPa 0,0 l/m 0 min 0 min 16 W/m 18,8 km/h (3 Bft) 95,74 %
24.01.2016 15:10 7,6 C 7,8 C 6,1 C 98 % 15 lf 1028,1 hPa 0,0 l/m 0 min 2 min 19 W/m 14,6 km/h (3 Bft) 95,74 %
24.01.2016 15:12 7,6 C 7,8 C 6,1 C 98 % 15 lf 1028,1 hPa 0,0 l/m 0 min 2 min 21 W/m 14,6 km/h (3 Bft) 91,49 %
24.01.2016 15:14 7,6 C 7,8 C 6,1 C 98 % 15 lf 1028,1 hPa 0,0 l/m 0 min 2 min 20 W/m 10,5 km/h (2 Bft) 95,74 %
24.01.2016 15:16 7,6 C 7,8 C 6,1 C 98 % 15 lf 1028,1 hPa 0,0 l/m 0 min 2 min 18 W/m 12,6 km/h (3 Bft) 91,49 %
24.01.2016 15:18 7,6 C 7,8 C 6,1 C 98 % 15 lf 1028,1 hPa 0,0 l/m 0 min 2 min 18 W/m 8,4 km/h (2 Bft) 95,65 %
24.01.2016 15:20 7,6 C 7,8 C 6,1 C 98 % 15 lf 1028,1 hPa 0,0 l/m 0 min 2 min 15 W/m 8,4 km/h (2 Bft) 93,62 %
24.01.2016 15:22 7,6 C 7,8 C 6,1 C 98 % 15 lf 1028,1 hPa 0,0 l/m 0 min 2 min 14 W/m 12,6 km/h (3 Bft) 95,74 %
24.01.2016 15:24 7,6 C 7,8 C 6,1 C 98 % 15 lf 1028,1 hPa 0,0 l/m 0 min 2 min 14 W/m 12,6 km/h (3 Bft) 93,62 %
24.01.2016 15:26 7,6 C 7,8 C 6,1 C 98 % 15 lf 1028,1 hPa 0,0 l/m 0 min 2 min 13 W/m 12,6 km/h (3 Bft) 95,74 %
24.01.2016 15:28 7,6 C 7,8 C 6,1 C 98 % 15 lf 1028,2 hPa 0,0 l/m 0 min 2 min 13 W/m 10,5 km/h (2 Bft) 91,49 %
24.01.2016 15:30 7,6 C 7,8 C 6,1 C 98 % 15 lf 1028,1 hPa 0,0 l/m 0 min 0 min 15 W/m 12,6 km/h (3 Bft) 93,48 %
24.01.2016 15:32 7,6 C 7,8 C 6,1 C 98 % 15 lf 1028,1 hPa 0,0 l/m 0 min 0 min 17 W/m 12,6 km/h (3 Bft) 89,36 %
24.01.2016 15:34 7,6 C 7,8 C 6,1 C 98 % 15 lf 1028,1 hPa 0,0 l/m 0 min 0 min 18 W/m 10,5 km/h (2 Bft) 95,74 %
24.01.2016 15:36 7,6 C 7,8 C 6,1 C 98 % 15 lf 1028,1 hPa 0,0 l/m 0 min 0 min 17 W/m 12,6 km/h (3 Bft) 97,87 %
24.01.2016 15:38 7,6 C 7,8 C 6,1 C 98 % 15 lf 1028,2 hPa 0,0 l/m 0 min 0 min 14 W/m 12,6 km/h (3 Bft) 97,87 %
24.01.2016 15:40 7,7 C 7,8 C 6,1 C 98 % 15 lf 1028,1 hPa 0,0 l/m 0 min 0 min 13 W/m 10,5 km/h (2 Bft) 93,62 %
24.01.2016 15:42 7,7 C 7,8 C 6,1 C 98 % 15 lf 1028,1 hPa 0,0 l/m 0 min 0 min 12 W/m 14,6 km/h (3 Bft) 95,65 %
24.01.2016 15:44 7,7 C 7,8 C 6,1 C 98 % 15 lf 1028,1 hPa 0,0 l/m 0 min 0 min 12 W/m 10,5 km/h (2 Bft) 97,87 %
24.01.2016 15:46 7,7 C 7,8 C 6,1 C 98 % 15 lf 1028,1 hPa 0,0 l/m 0 min 0 min 12 W/m 12,6 km/h (3 Bft) 95,74 %
24.01.2016 15:48 7,7 C 7,8 C 6,1 C 98 % 15 lf 1028,1 hPa 0,0 l/m 0 min 0 min 11 W/m 14,6 km/h (3 Bft) 93,62 %
24.01.2016 15:50 7,7 C 7,8 C 6,1 C 98 % 15 lf 1028,1 hPa 0,0 l/m 0 min 0 min 11 W/m 16,7 km/h (3 Bft) 95,74 %
24.01.2016 15:52 7,7 C 7,8 C 6,1 C 98 % 15 lf 1028,1 hPa 0,0 l/m 0 min 0 min 11 W/m 12,6 km/h (3 Bft) 97,83 %
24.01.2016 15:54 7,7 C 7,8 C 6,1 C 98 % 15 lf 1028,1 hPa 0,0 l/m 0 min 0 min 11 W/m 10,5 km/h (2 Bft) 95,74 %
24.01.2016 15:56 7,7 C 7,8 C 6,1 C 98 % 15 lf 1028,1 hPa 0,0 l/m 0 min 0 min 11 W/m 16,7 km/h (3 Bft) 95,74 %
24.01.2016 15:58 7,7 C 7,8 C 6,1 C 98 % 15 lf 1028,0 hPa 0,0 l/m 0 min 0 min 11 W/m 14,6 km/h (3 Bft) 97,87 %
24.01.2016 16:00 7,7 C 7,8 C 6,1 C 98 % 15 lf 1028,1 hPa 0,0 l/m 0 min 0 min 11 W/m 10,5 km/h (2 Bft) 97,87 %
24.01.2016 16:02 7,7 C 7,8 C 6,1 C 98 % 15 lf 1028,0 hPa 0,0 l/m 0 min 0 min 12 W/m 12,6 km/h (3 Bft) 95,83 %
24.01.2016 16:04 7,7 C 7,8 C 6,1 C 98 % 15 lf 1027,9 hPa 0,0 l/m 0 min 0 min 13 W/m 12,6 km/h (3 Bft) 97,83 %
24.01.2016 16:06 7,7 C 7,8 C 6,1 C 98 % 15 lf 1027,9 hPa 0,0 l/m 0 min 0 min 13 W/m 14,6 km/h (3 Bft) 95,74 %
24.01.2016 16:08 7,7 C 7,8 C 6,1 C 98 % 15 lf 1028,0 hPa 0,0 l/m 0 min 0 min 13 W/m 14,6 km/h (3 Bft) 97,87 %
24.01.2016 16:10 7,7 C 7,8 C 6,1 C 98 % 15 lf 1028,0 hPa 0,0 l/m 0 min 0 min 12 W/m 18,8 km/h (3 Bft) 95,74 %
24.01.2016 16:12 7,8 C 7,8 C 6,1 C 98 % 15 lf 1028,0 hPa 0,0 l/m 0 min 0 min 12 W/m 12,6 km/h (3 Bft) 95,74 %
24.01.2016 16:14 7,8 C 7,8 C 6,1 C 98 % 15 lf 1028,0 hPa 0,0 l/m 0 min 0 min 12 W/m 10,5 km/h (2 Bft) 97,87 %
24.01.2016 16:16 7,8 C 7,8 C 6,1 C 98 % 15 lf 1028,0 hPa 0,0 l/m 0 min 0 min 12 W/m 12,6 km/h (3 Bft) 95,65 %
24.01.2016 16:18 7,8 C 7,8 C 6,1 C 98 % 15 lf 1028,1 hPa 0,0 l/m 0 min 0 min 11 W/m 8,4 km/h (2 Bft) 97,87 %
24.01.2016 16:20 7,8 C 7,8 C 6,1 C 98 % 15 lf 1028,0 hPa 0,0 l/m 0 min 0 min 9 W/m 12,6 km/h (3 Bft) 93,62 %
24.01.2016 16:22 7,8 C 7,8 C 6,1 C 98 % 15 lf 1028,0 hPa 0,0 l/m 0 min 0 min 9 W/m 8,4 km/h (2 Bft) 95,74 %
24.01.2016 16:24 7,8 C 7,8 C 6,1 C 98 % 15 lf 1028,0 hPa 0,0 l/m 0 min 2 min 7 W/m 14,6 km/h (3 Bft) 97,87 %
24.01.2016 16:26 7,8 C 7,8 C 6,1 C 98 % 15 lf 1027,9 hPa 0,0 l/m 0 min 2 min 7 W/m 10,5 km/h (2 Bft) 97,87 %
24.01.2016 16:28 7,8 C 7,8 C 6,1 C 98 % 15 lf 1028,0 hPa 0,0 l/m 0 min 0 min 7 W/m 10,5 km/h (2 Bft) 100,00 %
24.01.2016 16:30 7,8 C 7,8 C 6,1 C 98 % 15 lf 1028,0 hPa 0,0 l/m 0 min 2 min 7 W/m 12,6 km/h (3 Bft) 97,87 %
24.01.2016 16:32 7,8 C 7,8 C 6,1 C 98 % 15 lf 1028,1 hPa 0,0 l/m 0 min 2 min 7 W/m 10,5 km/h (2 Bft) 93,62 %
24.01.2016 16:34 7,8 C 7,8 C 6,1 C 98 % 15 lf 1028,2 hPa 0,0 l/m 0 min 2 min 7 W/m 8,4 km/h (2 Bft) 100,00 %
24.01.2016 16:36 7,8 C 7,8 C 6,1 C 98 % 15 lf 1028,1 hPa 0,2 l/m 0 min 2 min 7 W/m 6,3 km/h (2 Bft) 97,87 %
24.01.2016 16:38 7,9 C 7,8 C 6,1 C 98 % 15 lf 1028,2 hPa 0,0 l/m 0 min 2 min 5 W/m 4,2 km/h (1 Bft) 97,83 %
24.01.2016 16:40 7,9 C 7,8 C 6,1 C 98 % 15 lf 1028,2 hPa 0,0 l/m 0 min 2 min 5 W/m 12,6 km/h (3 Bft) 97,87 %
24.01.2016 16:42 7,9 C 7,8 C 6,1 C 98 % 15 lf 1028,1 hPa 0,0 l/m 0 min 2 min 5 W/m 8,4 km/h (2 Bft) 100,00 %
24.01.2016 16:44 7,9 C 7,8 C 6,1 C 98 % 15 lf 1028,2 hPa 0,0 l/m 0 min 2 min 5 W/m 10,5 km/h (2 Bft) 97,87 %
24.01.2016 16:46 7,9 C 7,8 C 6,1 C 98 % 15 lf 1028,2 hPa 0,0 l/m 0 min 0 min 5 W/m 6,3 km/h (2 Bft) 100,00 %
24.01.2016 16:48 7,9 C 7,8 C 6,1 C 98 % 15 lf 1028,2 hPa 0,0 l/m 0 min 0 min 5 W/m 10,5 km/h (2 Bft) 97,87 %
24.01.2016 16:50 7,9 C 7,8 C 6,1 C 98 % 15 lf 1028,2 hPa 0,0 l/m 0 min 0 min 0 W/m 12,6 km/h (3 Bft) 97,83 %
24.01.2016 16:52 7,9 C 7,8 C 6,1 C 98 % 15 lf 1028,2 hPa 0,0 l/m 0 min 0 min 0 W/m 10,5 km/h (2 Bft) 95,74 %
24.01.2016 16:54 7,9 C 7,8 C 6,1 C 98 % 15 lf 1028,1 hPa 0,0 l/m 0 min 0 min 0 W/m 8,4 km/h (2 Bft) 95,74 %
24.01.2016 16:56 7,9 C 7,8 C 6,1 C 98 % 15 lf 1028,2 hPa 0,0 l/m 0 min 0 min 0 W/m 10,5 km/h (2 Bft) 95,74 %
24.01.2016 16:58 7,9 C 7,8 C 6,1 C 98 % 15 lf 1028,1 hPa 0,0 l/m 0 min 0 min 0 W/m 10,5 km/h (2 Bft) 95,74 %
24.01.2016 17:00 7,9 C 7,8 C 6,7 C 98 % 15 lf 1028,1 hPa 0,0 l/m 0 min 0 min 0 W/m 16,7 km/h (3 Bft) 91,49 %
24.01.2016 17:02 7,9 C 7,8 C 6,1 C 98 % 15 lf 1028,1 hPa 0,0 l/m 0 min 0 min 0 W/m 8,4 km/h (2 Bft) 95,83 %
24.01.2016 17:04 7,9 C 7,8 C 6,1 C 98 % 15 lf 1028,1 hPa 0,0 l/m 0 min 0 min 0 W/m 6,3 km/h (2 Bft) 95,74 %
24.01.2016 17:06 7,9 C 7,8 C 6,1 C 98 % 15 lf 1028,1 hPa 0,0 l/m 0 min 0 min 0 W/m 12,6 km/h (3 Bft) 93,62 %
24.01.2016 17:08 7,9 C 7,8 C 6,1 C 98 % 15 lf 1028,1 hPa 0,0 l/m 0 min 0 min 0 W/m 10,5 km/h (2 Bft) 95,74 %
24.01.2016 17:10 7,9 C 7,8 C 6,1 C 98 % 15 lf 1028,1 hPa 0,0 l/m 0 min 0 min 0 W/m 8,4 km/h (2 Bft) 89,36 %
24.01.2016 17:12 7,9 C 7,8 C 6,1 C 98 % 15 lf 1028,1 hPa 0,0 l/m 0 min 0 min 0 W/m 4,2 km/h (1 Bft) 95,74 %
24.01.2016 17:14 7,9 C 7,8 C 6,1 C 98 % 15 lf 1028,1 hPa 0,0 l/m 0 min 0 min 0 W/m 12,6 km/h (3 Bft) 97,83 %
24.01.2016 17:16 7,9 C 7,8 C 6,1 C 98 % 15 lf 1028,1 hPa 0,0 l/m 0 min 0 min 0 W/m 10,5 km/h (2 Bft) 95,74 %
24.01.2016 17:18 8,0 C 7,8 C 6,7 C 98 % 15 lf 1028,1 hPa 0,0 l/m 0 min 0 min 0 W/m 12,6 km/h (3 Bft) 93,62 %
24.01.2016 17:20 7,9 C 7,8 C 6,7 C 98 % 15 lf 1028,0 hPa 0,0 l/m 0 min 0 min 0 W/m 10,5 km/h (2 Bft) 95,74 %
24.01.2016 17:22 8,0 C 7,8 C 6,7 C 98 % 15 lf 1028,1 hPa 0,0 l/m 0 min 0 min 0 W/m 10,5 km/h (2 Bft) 95,74 %
24.01.2016 17:24 8,0 C 7,8 C 6,7 C 98 % 15 lf 1028,2 hPa 0,0 l/m 0 min 0 min 0 W/m 4,2 km/h (1 Bft) 97,83 %
24.01.2016 17:26 8,0 C 7,8 C 6,7 C 98 % 15 lf 1028,2 hPa 0,0 l/m 0 min 0 min 0 W/m 6,3 km/h (2 Bft) 97,87 %
24.01.2016 17:28 8,0 C 7,8 C 6,7 C 98 % 15 lf 1028,2 hPa 0,0 l/m 0 min 0 min 0 W/m 8,4 km/h (2 Bft) 95,74 %
24.01.2016 17:30 8,0 C 7,8 C 6,7 C 98 % 15 lf 1028,1 hPa 0,0 l/m 0 min 0 min 0 W/m 12,6 km/h (3 Bft) 95,74 %
24.01.2016 17:32 8,0 C 7,8 C 6,7 C 98 % 15 lf 1028,2 hPa 0,0 l/m 0 min 0 min 0 W/m 8,4 km/h (2 Bft) 97,92 %
24.01.2016 17:34 8,0 C 7,8 C 6,7 C 98 % 15 lf 1028,2 hPa 0,0 l/m 0 min 0 min 0 W/m 12,6 km/h (3 Bft) 95,74 %
24.01.2016 17:36 8,0 C 7,8 C 6,7 C 98 % 15 lf 1028,2 hPa 0,0 l/m 0 min 0 min 0 W/m 12,6 km/h (3 Bft) 97,92 %
24.01.2016 17:38 8,0 C 8,3 C 6,7 C 98 % 15 lf 1028,3 hPa 0,0 l/m 0 min 0 min 0 W/m 12,6 km/h (3 Bft) 95,74 %
24.01.2016 17:40 8,1 C 8,3 C 6,7 C 98 % 15 lf 1028,2 hPa 0,0 l/m 0 min 0 min 0 W/m 12,6 km/h (3 Bft) 97,87 %
24.01.2016 17:42 8,1 C 8,3 C 6,7 C 98 % 15 lf 1028,2 hPa 0,0 l/m 0 min 0 min 0 W/m 10,5 km/h (2 Bft) 97,87 %
24.01.2016 17:44 8,1 C 8,3 C 6,7 C 98 % 15 lf 1028,3 hPa 0,0 l/m 0 min 0 min 0 W/m 12,6 km/h (3 Bft) 91,49 %
24.01.2016 17:46 8,1 C 8,3 C 6,7 C 98 % 15 lf 1028,3 hPa 0,0 l/m 0 min 0 min 0 W/m 6,3 km/h (2 Bft) 97,87 %
24.01.2016 17:48 8,1 C 8,3 C 6,7 C 98 % 15 lf 1028,3 hPa 0,0 l/m 0 min 0 min 0 W/m 8,4 km/h (2 Bft) 100,00 %
24.01.2016 17:50 8,1 C 8,3 C 6,7 C 98 % 15 lf 1028,3 hPa 0,0 l/m 0 min 0 min 0 W/m 10,5 km/h (2 Bft) 100,00 %
24.01.2016 17:52 8,1 C 8,3 C 6,7 C 98 % 15 lf 1028,3 hPa 0,0 l/m 0 min 0 min 0 W/m 8,4 km/h (2 Bft) 97,87 %
24.01.2016 17:54 8,1 C 8,3 C 6,7 C 98 % 15 lf 1028,3 hPa 0,0 l/m 0 min 0 min 0 W/m 10,5 km/h (2 Bft) 97,87 %
24.01.2016 17:56 8,1 C 8,3 C 6,7 C 98 % 15 lf 1028,3 hPa 0,0 l/m 0 min 0 min 0 W/m 12,6 km/h (3 Bft) 97,87 %
24.01.2016 17:58 8,1 C 8,3 C 6,7 C 98 % 15 lf 1028,3 hPa 0,0 l/m 0 min 0 min 0 W/m 16,7 km/h (3 Bft) 97,87 %
24.01.2016 18:00 8,1 C 8,3 C 6,7 C 98 % 15 lf 1028,3 hPa 0,0 l/m 0 min 0 min 0 W/m 12,6 km/h (3 Bft) 97,83 %
24.01.2016 18:02 8,1 C 8,3 C 6,7 C 98 % 15 lf 1028,3 hPa 0,0 l/m 0 min 0 min 0 W/m 6,3 km/h (2 Bft) 95,65 %
24.01.2016 18:04 8,1 C 8,3 C 6,7 C 98 % 15 lf 1028,3 hPa 0,0 l/m 0 min 0 min 0 W/m 10,5 km/h (2 Bft) 100,00 %
24.01.2016 18:06 8,1 C 8,3 C 6,7 C 98 % 15 lf 1028,2 hPa 0,0 l/m 0 min 0 min 0 W/m 8,4 km/h (2 Bft) 100,00 %
24.01.2016 18:08 8,2 C 8,3 C 6,7 C 98 % 15 lf 1028,2 hPa 0,0 l/m 0 min 0 min 0 W/m 16,7 km/h (3 Bft) 95,74 %
24.01.2016 18:10 8,2 C 8,3 C 6,7 C 98 % 15 lf 1028,2 hPa 0,0 l/m 0 min 0 min 0 W/m 16,7 km/h (3 Bft) 97,83 %
24.01.2016 18:12 8,2 C 8,3 C 6,7 C 98 % 15 lf 1028,1 hPa 0,0 l/m 0 min 0 min 0 W/m 10,5 km/h (2 Bft) 100,00 %
24.01.2016 18:14 8,2 C 8,3 C 6,7 C 98 % 15 lf 1028,1 hPa 0,0 l/m 0 min 0 min 0 W/m 6,3 km/h (2 Bft) 97,87 %
24.01.2016 18:16 8,2 C 8,3 C 6,7 C 98 % 15 lf 1028,1 hPa 0,0 l/m 0 min 0 min 0 W/m 10,5 km/h (2 Bft) 100,00 %
24.01.2016 18:18 8,2 C 8,3 C 6,7 C 98 % 15 lf 1028,1 hPa 0,0 l/m 0 min 0 min 0 W/m 12,6 km/h (3 Bft) 93,62 %
24.01.2016 18:20 8,2 C 8,3 C 6,7 C 98 % 15 lf 1028,1 hPa 0,0 l/m 0 min 0 min 0 W/m 10,5 km/h (2 Bft) 97,87 %
24.01.2016 18:22 8,2 C 8,3 C 6,7 C 98 % 15 lf 1028,2 hPa 0,0 l/m 0 min 0 min 0 W/m 8,4 km/h (2 Bft) 100,00 %
24.01.2016 18:24 8,2 C 8,3 C 6,7 C 98 % 15 lf 1028,2 hPa 0,0 l/m 0 min 0 min 0 W/m 14,6 km/h (3 Bft) 95,74 %
24.01.2016 18:26 8,2 C 8,3 C 6,7 C 98 % 15 lf 1028,1 hPa 0,0 l/m 0 min 0 min 0 W/m 12,6 km/h (3 Bft) 97,87 %
24.01.2016 18:28 8,2 C 8,3 C 6,7 C 98 % 15 lf 1028,2 hPa 0,0 l/m 0 min 0 min 0 W/m 14,6 km/h (3 Bft) 97,87 %
24.01.2016 18:30 8,2 C 8,3 C 6,7 C 98 % 15 lf 1028,1 hPa 0,0 l/m 0 min 0 min 0 W/m 12,6 km/h (3 Bft) 97,87 %
24.01.2016 18:32 8,2 C 8,3 C 6,7 C 98 % 15 lf 1028,1 hPa 0,0 l/m 0 min 0 min 0 W/m 10,5 km/h (2 Bft) 95,74 %
24.01.2016 18:34 8,2 C 8,3 C 6,7 C 98 % 15 lf 1028,1 hPa 0,0 l/m 0 min 0 min 0 W/m 16,7 km/h (3 Bft) 95,65 %
24.01.2016 18:36 8,2 C 8,3 C 6,7 C 98 % 15 lf 1028,1 hPa 0,0 l/m 0 min 0 min 0 W/m 14,6 km/h (3 Bft) 95,74 %
24.01.2016 18:38 8,2 C 8,3 C 6,7 C 98 % 15 lf 1028,1 hPa 0,0 l/m 0 min 0 min 0 W/m 12,6 km/h (3 Bft) 93,62 %
24.01.2016 18:40 8,2 C 8,3 C 6,7 C 98 % 15 lf 1028,1 hPa 0,0 l/m 0 min 0 min 0 W/m 18,8 km/h (3 Bft) 95,74 %
24.01.2016 18:42 8,2 C 8,3 C 6,7 C 98 % 15 lf 1028,0 hPa 0,0 l/m 0 min 0 min 0 W/m 12,6 km/h (3 Bft) 94,29 %
24.01.2016 18:44 8,3 C 8,3 C 6,7 C 98 % 15 lf 1028,1 hPa 0,0 l/m 0 min 0 min 0 W/m 23,0 km/h (4 Bft) 93,62 %
24.01.2016 18:46 8,3 C 8,3 C 6,7 C 98 % 15 lf 1028,2 hPa 0,0 l/m 0 min 0 min 0 W/m 12,6 km/h (3 Bft) 91,49 %
24.01.2016 18:48 8,3 C 8,3 C 6,7 C 98 % 15 lf 1028,2 hPa 0,0 l/m 0 min 0 min 0 W/m 8,4 km/h (2 Bft) 91,49 %
24.01.2016 18:50 8,3 C 8,3 C 6,7 C 98 % 15 lf 1028,3 hPa 0,0 l/m 0 min 0 min 0 W/m 16,7 km/h (3 Bft) 93,48 %
24.01.2016 18:52 8,3 C 8,3 C 6,7 C 98 % 15 lf 1028,3 hPa 0,0 l/m 0 min 0 min 0 W/m 12,6 km/h (3 Bft) 92,45 %
24.01.2016 18:54 8,3 C 8,3 C 6,7 C 98 % 15 lf 1028,3 hPa 0,0 l/m 0 min 0 min 0 W/m 10,5 km/h (2 Bft) 93,62 %
24.01.2016 18:56 8,3 C 8,3 C 6,7 C 98 % 15 lf 1028,3 hPa 0,0 l/m 0 min 0 min 0 W/m 12,6 km/h (3 Bft) 91,49 %
24.01.2016 18:58 8,3 C 8,3 C 6,7 C 98 % 15 lf 1028,3 hPa 0,0 l/m 0 min 0 min 0 W/m 12,6 km/h (3 Bft) 93,62 %
24.01.2016 19:00 8,3 C 8,3 C 6,7 C 98 % 15 lf 1028,3 hPa 0,0 l/m 0 min 0 min 0 W/m 8,4 km/h (2 Bft) 93,48 %
24.01.2016 19:02 8,3 C 8,3 C 6,7 C 98 % 15 lf 1028,3 hPa 0,0 l/m 0 min 0 min 0 W/m 12,6 km/h (3 Bft) 90,24 %
24.01.2016 19:04 8,3 C 8,3 C 6,7 C 98 % 15 lf 1028,3 hPa 0,0 l/m 0 min 0 min 0 W/m 14,6 km/h (3 Bft) 94,34 %
24.01.2016 19:06 8,3 C 8,3 C 6,7 C 98 % 15 lf 1028,3 hPa 0,0 l/m 0 min 0 min 0 W/m 12,6 km/h (3 Bft) 91,49 %
24.01.2016 19:08 8,3 C 8,3 C 6,7 C 98 % 15 lf 1028,3 hPa 0,0 l/m 0 min 0 min 0 W/m 14,6 km/h (3 Bft) 91,49 %
24.01.2016 19:10 8,3 C 8,3 C 6,7 C 98 % 15 lf 1028,4 hPa 0,0 l/m 0 min 0 min 0 W/m 12,6 km/h (3 Bft) 89,13 %
24.01.2016 19:12 8,3 C 8,3 C 6,7 C 98 % 15 lf 1028,4 hPa 0,0 l/m 0 min 0 min 0 W/m 10,5 km/h (2 Bft) 95,74 %
24.01.2016 19:14 8,3 C 8,3 C 6,7 C 98 % 15 lf 1028,4 hPa 0,0 l/m 0 min 0 min 0 W/m 12,6 km/h (3 Bft) 95,74 %
24.01.2016 19:16 8,3 C 8,3 C 6,7 C 98 % 15 lf 1028,4 hPa 0,0 l/m 0 min 0 min 0 W/m 16,7 km/h (3 Bft) 95,12 %
24.01.2016 19:18 8,3 C 8,3 C 6,7 C 98 % 15 lf 1028,4 hPa 0,0 l/m 0 min 0 min 0 W/m 10,5 km/h (2 Bft) 95,74 %
24.01.2016 19:20 8,3 C 8,3 C 6,7 C 98 % 15 lf 1028,4 hPa 0,0 l/m 0 min 0 min 0 W/m 10,5 km/h (2 Bft) 97,87 %
24.01.2016 19:22 8,3 C 8,3 C 6,7 C 99 % 15 lf 1028,4 hPa 0,0 l/m 0 min 0 min 0 W/m 14,6 km/h (3 Bft) 98,08 %
24.01.2016 19:24 8,4 C 8,3 C 6,7 C 98 % 15 lf 1028,4 hPa 0,0 l/m 0 min 0 min 0 W/m 14,6 km/h (3 Bft) 97,87 %
24.01.2016 19:26 8,4 C 8,3 C 6,7 C 99 % 15 lf 1028,4 hPa 0,0 l/m 0 min 0 min 0 W/m 10,5 km/h (2 Bft) 97,87 %
24.01.2016 19:28 8,4 C 8,3 C 6,7 C 99 % 15 lf 1028,5 hPa 0,0 l/m 0 min 0 min 0 W/m 12,6 km/h (3 Bft) 95,74 %
24.01.2016 19:30 8,4 C 8,3 C 6,7 C 99 % 15 lf 1028,4 hPa 0,0 l/m 0 min 0 min 0 W/m 8,4 km/h (2 Bft) 97,87 %
24.01.2016 19:32 8,4 C 8,3 C 6,7 C 99 % 15 lf 1028,5 hPa 0,0 l/m 0 min 0 min 0 W/m 12,6 km/h (3 Bft) 95,83 %
24.01.2016 19:34 8,4 C 8,3 C 6,7 C 99 % 15 lf 1028,6 hPa 0,0 l/m 0 min 0 min 0 W/m 10,5 km/h (2 Bft) 91,30 %
24.01.2016 19:36 8,4 C 8,3 C 6,7 C 99 % 15 lf 1028,6 hPa 0,0 l/m 0 min 0 min 0 W/m 14,6 km/h (3 Bft) 97,87 %
24.01.2016 19:38 8,4 C 8,3 C 6,7 C 99 % 15 lf 1028,5 hPa 0,0 l/m 0 min 0 min 0 W/m 12,6 km/h (3 Bft) 95,74 %
24.01.2016 19:40 8,4 C 8,3 C 6,7 C 99 % 15 lf 1028,6 hPa 0,0 l/m 0 min 0 min 0 W/m 10,5 km/h (2 Bft) 97,87 %
24.01.2016 19:42 8,4 C 8,3 C 6,7 C 98 % 15 lf 1028,5 hPa 0,0 l/m 0 min 0 min 0 W/m 16,7 km/h (3 Bft) 97,87 %
24.01.2016 19:44 8,4 C 8,3 C 6,7 C 98 % 15 lf 1028,5 hPa 0,0 l/m 0 min 0 min 0 W/m 14,6 km/h (3 Bft) 100,00 %
24.01.2016 19:46 8,4 C 8,3 C 6,7 C 98 % 14 lf 1028,4 hPa 0,0 l/m 0 min 0 min 0 W/m 12,6 km/h (3 Bft) 100,00 %
24.01.2016 19:48 8,4 C 8,3 C 6,7 C 98 % 14 lf 1028,4 hPa 0,0 l/m 0 min 0 min 0 W/m 18,8 km/h (3 Bft) 100,00 %
24.01.2016 19:50 8,4 C 8,3 C 6,7 C 98 % 14 lf 1028,4 hPa 0,0 l/m 0 min 0 min 0 W/m 18,8 km/h (3 Bft) 97,87 %
24.01.2016 19:52 8,4 C 8,3 C 6,7 C 98 % 14 lf 1028,4 hPa 0,0 l/m 0 min 0 min 0 W/m 16,7 km/h (3 Bft) 100,00 %
24.01.2016 19:54 8,4 C 8,3 C 7,2 C 98 % 13 lf 1028,4 hPa 0,0 l/m 0 min 0 min 0 W/m 18,8 km/h (3 Bft) 100,00 %
24.01.2016 19:56 8,5 C 8,3 C 7,2 C 98 % 13 lf 1028,3 hPa 0,0 l/m 0 min 0 min 0 W/m 16,7 km/h (3 Bft) 93,62 %
24.01.2016 19:58 8,5 C 8,9 C 7,2 C 98 % 13 lf 1028,3 hPa 0,0 l/m 0 min 0 min 0 W/m 20,9 km/h (4 Bft) 95,65 %
24.01.2016 20:00 8,5 C 8,3 C 7,2 C 98 % 12 lf 1028,3 hPa 0,0 l/m 0 min 0 min 0 W/m 20,9 km/h (4 Bft) 95,74 %
24.01.2016 20:02 8,5 C 8,3 C 7,2 C 98 % 11 lf 1028,3 hPa 0,0 l/m 0 min 0 min 0 W/m 16,7 km/h (3 Bft) 97,92 %
24.01.2016 20:04 8,5 C 8,3 C 7,2 C 98 % 10 lf 1028,2 hPa 0,0 l/m 0 min 0 min 0 W/m 12,6 km/h (3 Bft) 93,62 %
24.01.2016 20:06 8,6 C 8,9 C 7,2 C 98 % 9 lf 1028,2 hPa 0,0 l/m 0 min 0 min 0 W/m 23,0 km/h (4 Bft) 93,62 %
24.01.2016 20:08 8,6 C 8,9 C 7,2 C 98 % 8 lf 1028,3 hPa 0,0 l/m 0 min 0 min 0 W/m 18,8 km/h (3 Bft) 95,65 %
24.01.2016 20:10 8,6 C 8,9 C 7,2 C 98 % 6 lf 1028,3 hPa 0,0 l/m 0 min 0 min 0 W/m 18,8 km/h (3 Bft) 97,87 %
24.01.2016 20:12 8,6 C 8,9 C 7,2 C 98 % 5 lf 1028,3 hPa 0,0 l/m 0 min 0 min 0 W/m 14,6 km/h (3 Bft) 93,75 %
24.01.2016 20:14 8,6 C 8,9 C 7,2 C 98 % 4 lf 1028,3 hPa 0,0 l/m 0 min 0 min 0 W/m 12,6 km/h (3 Bft) 95,74 %
24.01.2016 20:16 8,6 C 8,9 C 7,2 C 98 % 4 lf 1028,3 hPa 0,0 l/m 0 min 0 min 0 W/m 16,7 km/h (3 Bft) 97,87 %
24.01.2016 20:18 8,6 C 8,9 C 7,2 C 99 % 3 lf 1028,3 hPa 0,0 l/m 0 min 0 min 0 W/m 10,5 km/h (2 Bft) 95,74 %
24.01.2016 20:20 8,6 C 8,9 C 7,2 C 99 % 3 lf 1028,3 hPa 0,0 l/m 0 min 0 min 0 W/m 16,7 km/h (3 Bft) 95,65 %
24.01.2016 20:22 8,6 C 8,9 C 7,2 C 99 % 3 lf 1028,3 hPa 0,0 l/m 0 min 0 min 0 W/m 16,7 km/h (3 Bft) 95,74 %
24.01.2016 20:24 8,6 C 8,9 C 7,2 C 99 % 3 lf 1028,3 hPa 0,0 l/m 0 min 0 min 0 W/m 14,6 km/h (3 Bft) 95,74 %
24.01.2016 20:26 8,6 C 8,9 C 7,2 C 99 % 3 lf 1028,3 hPa 0,0 l/m 0 min 0 min 0 W/m 16,7 km/h (3 Bft) 95,74 %
24.01.2016 20:28 8,6 C 8,9 C 7,2 C 99 % 2 lf 1028,3 hPa 0,0 l/m 0 min 0 min 0 W/m 14,6 km/h (3 Bft) 93,62 %
24.01.2016 20:30 8,7 C 8,9 C 7,2 C 99 % 2 lf 1028,3 hPa 0,0 l/m 0 min 0 min 0 W/m 14,6 km/h (3 Bft) 97,87 %
24.01.2016 20:32 8,7 C 8,9 C 7,2 C 99 % 2 lf 1028,3 hPa 0,0 l/m 0 min 0 min 0 W/m 20,9 km/h (4 Bft) 97,83 %
24.01.2016 20:34 8,7 C 8,9 C 7,2 C 99 % 2 lf 1028,2 hPa 0,0 l/m 0 min 0 min 0 W/m 16,7 km/h (3 Bft) 93,62 %
24.01.2016 20:36 8,7 C 8,9 C 7,2 C 99 % 2 lf 1028,2 hPa 0,0 l/m 0 min 0 min 0 W/m 12,6 km/h (3 Bft) 95,74 %
24.01.2016 20:38 8,7 C 8,9 C 7,2 C 99 % 2 lf 1028,2 hPa 0,0 l/m 0 min 0 min 0 W/m 14,6 km/h (3 Bft) 95,74 %
24.01.2016 20:40 8,7 C 8,9 C 7,2 C 99 % 2 lf 1028,2 hPa 0,0 l/m 0 min 0 min 0 W/m 18,8 km/h (3 Bft) 95,74 %
24.01.2016 20:42 8,7 C 8,9 C 7,2 C 99 % 2 lf 1028,2 hPa 0,0 l/m 0 min 0 min 0 W/m 18,8 km/h (3 Bft) 93,62 %
24.01.2016 20:44 8,7 C 8,9 C 7,2 C 99 % 2 lf 1028,2 hPa 0,0 l/m 0 min 0 min 0 W/m 16,7 km/h (3 Bft) 95,65 %
24.01.2016 20:46 8,7 C 8,9 C 7,2 C 99 % 2 lf 1028,2 hPa 0,0 l/m 0 min 0 min 0 W/m 14,6 km/h (3 Bft) 97,87 %
24.01.2016 20:48 8,7 C 8,9 C 7,2 C 99 % 2 lf 1028,2 hPa 0,0 l/m 0 min 0 min 0 W/m 20,9 km/h (4 Bft) 97,87 %
24.01.2016 20:50 8,7 C 8,9 C 7,2 C 99 % 2 lf 1028,1 hPa 0,0 l/m 0 min 0 min 0 W/m 16,7 km/h (3 Bft) 97,87 %
24.01.2016 20:52 8,7 C 8,9 C 7,2 C 99 % 2 lf 1028,1 hPa 0,0 l/m 0 min 0 min 0 W/m 20,9 km/h (4 Bft) 95,74 %
24.01.2016 20:54 8,8 C 8,9 C 7,2 C 99 % 2 lf 1028,0 hPa 0,0 l/m 0 min 0 min 0 W/m 12,6 km/h (3 Bft) 95,74 %
24.01.2016 20:56 8,8 C 8,9 C 7,2 C 99 % 2 lf 1028,1 hPa 0,0 l/m 0 min 0 min 0 W/m 12,6 km/h (3 Bft) 97,83 %
24.01.2016 20:58 8,8 C 8,9 C 7,2 C 99 % 2 lf 1028,0 hPa 0,0 l/m 0 min 0 min 0 W/m 23,0 km/h (4 Bft) 97,87 %
24.01.2016 21:00 8,8 C 8,9 C 7,2 C 99 % 1 lf 1028,1 hPa 0,0 l/m 0 min 0 min 0 W/m 16,7 km/h (3 Bft) 97,87 %
24.01.2016 21:02 8,8 C 8,9 C 7,2 C 99 % 1 lf 1028,0 hPa 0,0 l/m 0 min 0 min 0 W/m 16,7 km/h (3 Bft) 95,83 %
24.01.2016 21:04 8,8 C 8,9 C 7,2 C 99 % 1 lf 1028,0 hPa 0,0 l/m 0 min 0 min 0 W/m 14,6 km/h (3 Bft) 95,74 %
24.01.2016 21:06 8,8 C 8,9 C 7,2 C 99 % 1 lf 1028,0 hPa 0,0 l/m 0 min 0 min 0 W/m 23,0 km/h (4 Bft) 100,00 %
24.01.2016 21:08 8,9 C 8,9 C 7,2 C 99 % 1 lf 1028,0 hPa 0,0 l/m 0 min 0 min 0 W/m 14,6 km/h (3 Bft) 95,74 %
24.01.2016 21:10 8,9 C 8,9 C 7,2 C 99 % 1 lf 1028,1 hPa 0,0 l/m 0 min 0 min 0 W/m 18,8 km/h (3 Bft) 97,87 %
24.01.2016 21:12 8,9 C 8,9 C 7,2 C 99 % 1 lf 1028,0 hPa 0,0 l/m 0 min 0 min 0 W/m 16,7 km/h (3 Bft) 95,74 %
24.01.2016 21:14 8,9 C 8,9 C 7,2 C 99 % 1 lf 1028,0 hPa 0,0 l/m 0 min 0 min 0 W/m 16,7 km/h (3 Bft) 95,74 %
24.01.2016 21:16 8,9 C 8,9 C 7,2 C 99 % 1 lf 1028,0 hPa 0,0 l/m 0 min 0 min 0 W/m 20,9 km/h (4 Bft) 97,87 %
24.01.2016 21:18 8,9 C 8,9 C 7,2 C 99 % 1 lf 1028,0 hPa 0,0 l/m 0 min 0 min 0 W/m 16,7 km/h (3 Bft) 97,83 %
24.01.2016 21:20 8,9 C 8,9 C 7,2 C 99 % 1 lf 1028,0 hPa 0,0 l/m 0 min 0 min 0 W/m 18,8 km/h (3 Bft) 97,87 %
24.01.2016 21:22 8,9 C 9,4 C 7,2 C 99 % 1 lf 1028,0 hPa 0,0 l/m 0 min 0 min 0 W/m 20,9 km/h (4 Bft) 95,74 %
24.01.2016 21:24 8,9 C 9,4 C 7,2 C 99 % 1 lf 1028,0 hPa 0,0 l/m 0 min 0 min 0 W/m 16,7 km/h (3 Bft) 95,74 %
24.01.2016 21:26 9,0 C 9,4 C 7,2 C 99 % 1 lf 1028,0 hPa 0,0 l/m 0 min 0 min 0 W/m 18,8 km/h (3 Bft) 97,87 %
24.01.2016 21:28 9,0 C 9,4 C 7,2 C 99 % 1 lf 1028,0 hPa 0,0 l/m 0 min 0 min 0 W/m 12,6 km/h (3 Bft) 95,74 %
24.01.2016 21:30 9,0 C 9,4 C 7,2 C 99 % 1 lf 1028,0 hPa 0,0 l/m 0 min 0 min 0 W/m 12,6 km/h (3 Bft) 97,83 %
24.01.2016 21:32 9,0 C 9,4 C 7,2 C 99 % 1 lf 1028,0 hPa 0,0 l/m 0 min 0 min 0 W/m 10,5 km/h (2 Bft) 97,87 %
24.01.2016 21:34 9,0 C 9,4 C 7,2 C 99 % 1 lf 1028,0 hPa 0,0 l/m 0 min 0 min 0 W/m 16,7 km/h (3 Bft) 95,74 %
24.01.2016 21:36 9,0 C 9,4 C 7,2 C 99 % 1 lf 1028,0 hPa 0,0 l/m 0 min 0 min 0 W/m 18,8 km/h (3 Bft) 94,29 %
24.01.2016 21:38 9,1 C 9,4 C 7,2 C 99 % 1 lf 1028,0 hPa 0,0 l/m 0 min 0 min 0 W/m 16,7 km/h (3 Bft) 94,92 %
24.01.2016 21:40 9,1 C 9,4 C 7,2 C 99 % 1 lf 1027,9 hPa 0,0 l/m 0 min 0 min 0 W/m 20,9 km/h (4 Bft) 100,00 %
24.01.2016 21:42 9,1 C 9,4 C 7,8 C 99 % 1 lf 1027,8 hPa 0,0 l/m 0 min 0 min 0 W/m 18,8 km/h (3 Bft) 91,49 %
24.01.2016 21:44 9,1 C 9,4 C 7,8 C 99 % 1 lf 1027,9 hPa 0,0 l/m 0 min 0 min 0 W/m 18,8 km/h (3 Bft) 95,65 %
24.01.2016 21:46 9,1 C 9,4 C 7,8 C 99 % 1 lf 1027,9 hPa 0,0 l/m 0 min 0 min 0 W/m 14,6 km/h (3 Bft) 94,92 %
24.01.2016 21:48 9,1 C 9,4 C 7,8 C 99 % 1 lf 1027,9 hPa 0,0 l/m 0 min 0 min 0 W/m 25,1 km/h (4 Bft) 94,29 %
24.01.2016 21:50 9,1 C 9,4 C 7,8 C 99 % 1 lf 1027,9 hPa 0,0 l/m 0 min 0 min 0 W/m 14,6 km/h (3 Bft) 97,87 %
24.01.2016 21:52 9,2 C 9,4 C 7,8 C 99 % 1 lf 1028,0 hPa 0,0 l/m 0 min 0 min 0 W/m 18,8 km/h (3 Bft) 97,87 %
24.01.2016 21:54 9,2 C 9,4 C 7,8 C 99 % 1 lf 1027,9 hPa 0,0 l/m 0 min 0 min 0 W/m 20,9 km/h (4 Bft) 96,55 %
24.01.2016 21:56 9,2 C 9,4 C 7,8 C 99 % 1 lf 1028,0 hPa 0,0 l/m 0 min 0 min 0 W/m 14,6 km/h (3 Bft) 97,14 %
24.01.2016 21:58 9,2 C 9,4 C 7,8 C 99 % 1 lf 1028,0 hPa 0,0 l/m 0 min 0 min 0 W/m 8,4 km/h (2 Bft) 97,87 %
24.01.2016 22:00 9,2 C 9,4 C 7,8 C 99 % 1 lf 1028,0 hPa 0,0 l/m 0 min 0 min 0 W/m 12,6 km/h (3 Bft) 96,61 %
24.01.2016 22:02 9,2 C 9,4 C 7,8 C 99 % 1 lf 1027,9 hPa 0,0 l/m 0 min 0 min 0 W/m 16,7 km/h (3 Bft) 97,14 %
24.01.2016 22:04 9,2 C 9,4 C 7,8 C 99 % 1 lf 1028,0 hPa 0,0 l/m 0 min 0 min 0 W/m 16,7 km/h (3 Bft) 100,00 %
24.01.2016 22:06 9,2 C 9,4 C 7,8 C 99 % 1 lf 1027,9 hPa 0,0 l/m 0 min 0 min 0 W/m 14,6 km/h (3 Bft) 100,00 %
24.01.2016 22:08 9,2 C 9,4 C 7,8 C 99 % 1 lf 1027,9 hPa 0,0 l/m 0 min 0 min 0 W/m 18,8 km/h (3 Bft) 97,83 %
24.01.2016 22:10 9,2 C 9,4 C 7,8 C 99 % 1 lf 1027,9 hPa 0,0 l/m 0 min 0 min 0 W/m 16,7 km/h (3 Bft) 95,74 %
24.01.2016 22:12 9,2 C 9,4 C 7,8 C 99 % 1 lf 1027,9 hPa 0,0 l/m 0 min 0 min 0 W/m 14,6 km/h (3 Bft) 100,00 %
24.01.2016 22:14 9,2 C 9,4 C 7,8 C 99 % 1 lf 1028,0 hPa 0,0 l/m 0 min 0 min 0 W/m 14,6 km/h (3 Bft) 100,00 %
24.01.2016 22:16 9,2 C 9,4 C 7,8 C 99 % 1 lf 1028,0 hPa 0,0 l/m 0 min 0 min 0 W/m 16,7 km/h (3 Bft) 100,00 %
24.01.2016 22:18 9,2 C 9,4 C 7,8 C 99 % 1 lf 1028,0 hPa 0,0 l/m 0 min 0 min 0 W/m 14,6 km/h (3 Bft) 100,00 %
24.01.2016 22:20 9,2 C 9,4 C 7,8 C 99 % 1 lf 1028,1 hPa 0,0 l/m 0 min 0 min 0 W/m 16,7 km/h (3 Bft) 97,87 %
24.01.2016 22:22 9,3 C 9,4 C 7,8 C 99 % 1 lf 1028,0 hPa 0,0 l/m 0 min 0 min 0 W/m 14,6 km/h (3 Bft) 97,87 %
24.01.2016 22:24 9,3 C 9,4 C 7,8 C 99 % 1 lf 1028,0 hPa 0,0 l/m 0 min 0 min 0 W/m 14,6 km/h (3 Bft) 100,00 %
24.01.2016 22:26 9,3 C 9,4 C 7,8 C 99 % 1 lf 1028,0 hPa 0,0 l/m 0 min 0 min 0 W/m 12,6 km/h (3 Bft) 93,62 %
24.01.2016 22:28 9,3 C 9,4 C 7,8 C 99 % 1 lf 1028,0 hPa 0,0 l/m 0 min 0 min 0 W/m 12,6 km/h (3 Bft) 95,65 %
24.01.2016 22:30 9,3 C 9,4 C 7,8 C 99 % 1 lf 1028,0 hPa 0,0 l/m 0 min 0 min 0 W/m 18,8 km/h (3 Bft) 95,74 %
24.01.2016 22:32 9,3 C 9,4 C 7,8 C 99 % 1 lf 1028,0 hPa 0,0 l/m 0 min 0 min 0 W/m 16,7 km/h (3 Bft) 97,87 %
24.01.2016 22:34 9,3 C 9,4 C 7,8 C 99 % 1 lf 1028,1 hPa 0,0 l/m 0 min 0 min 0 W/m 8,4 km/h (2 Bft) 97,87 %
24.01.2016 22:36 9,3 C 9,4 C 7,8 C 99 % 1 lf 1028,1 hPa 0,0 l/m 0 min 0 min 0 W/m 8,4 km/h (2 Bft) 97,87 %
24.01.2016 22:38 9,3 C 9,4 C 7,8 C 99 % 1 lf 1028,1 hPa 0,0 l/m 0 min 0 min 0 W/m 16,7 km/h (3 Bft) 93,62 %
24.01.2016 22:40 9,3 C 9,4 C 7,8 C 99 % 1 lf 1028,1 hPa 0,0 l/m 0 min 0 min 0 W/m 12,6 km/h (3 Bft) 95,65 %
24.01.2016 22:42 9,3 C 9,4 C 7,8 C 99 % 1 lf 1028,1 hPa 0,0 l/m 0 min 0 min 0 W/m 12,6 km/h (3 Bft) 97,22 %
24.01.2016 22:44 9,3 C 9,4 C 7,8 C 99 % 1 lf 1028,0 hPa 0,0 l/m 0 min 0 min 0 W/m 10,5 km/h (2 Bft) 95,65 %
24.01.2016 22:46 9,3 C 9,4 C 7,8 C 99 % 1 lf 1028,0 hPa 0,0 l/m 0 min 0 min 0 W/m 18,8 km/h (3 Bft) 94,92 %
24.01.2016 22:48 9,3 C 9,4 C 7,8 C 98 % 1 lf 1028,0 hPa 0,0 l/m 0 min 0 min 0 W/m 14,6 km/h (3 Bft) 93,62 %
24.01.2016 22:50 9,3 C 9,4 C 7,8 C 98 % 1 lf 1028,0 hPa 0,0 l/m 0 min 0 min 0 W/m 12,6 km/h (3 Bft) 91,43 %
24.01.2016 22:52 9,3 C 9,4 C 7,8 C 98 % 1 lf 1028,1 hPa 0,0 l/m 0 min 0 min 0 W/m 12,6 km/h (3 Bft) 96,55 %
24.01.2016 22:54 9,3 C 9,4 C 7,8 C 98 % 1 lf 1028,0 hPa 0,0 l/m 0 min 0 min 0 W/m 14,6 km/h (3 Bft) 88,89 %
24.01.2016 22:56 9,3 C 9,4 C 7,8 C 98 % 1 lf 1028,0 hPa 0,0 l/m 0 min 0 min 0 W/m 14,6 km/h (3 Bft) 93,48 %
24.01.2016 22:58 9,3 C 9,4 C 7,8 C 99 % 1 lf 1028,0 hPa 0,0 l/m 0 min 0 min 0 W/m 14,6 km/h (3 Bft) 95,74 %
24.01.2016 23:00 9,3 C 9,4 C 7,8 C 99 % 1 lf 1028,0 hPa 0,0 l/m 0 min 0 min 0 W/m 18,8 km/h (3 Bft) 94,92 %
24.01.2016 23:02 9,3 C 9,4 C 7,8 C 99 % 1 lf 1028,0 hPa 0,0 l/m 0 min 0 min 0 W/m 14,6 km/h (3 Bft) 91,43 %
24.01.2016 23:04 9,3 C 9,4 C 7,8 C 99 % 1 lf 1028,0 hPa 0,0 l/m 0 min 0 min 0 W/m 16,7 km/h (3 Bft) 95,74 %
24.01.2016 23:06 9,3 C 9,4 C 7,8 C 99 % 1 lf 1028,0 hPa 0,0 l/m 0 min 0 min 0 W/m 18,8 km/h (3 Bft) 93,62 %
24.01.2016 23:08 9,3 C 9,4 C 7,8 C 99 % 1 lf 1028,0 hPa 0,0 l/m 0 min 0 min 0 W/m 12,6 km/h (3 Bft) 93,48 %
24.01.2016 23:10 9,3 C 9,4 C 7,8 C 99 % 1 lf 1028,0 hPa 0,0 l/m 0 min 0 min 0 W/m 18,8 km/h (3 Bft) 95,74 %
24.01.2016 23:12 9,3 C 9,4 C 7,8 C 99 % 1 lf 1028,0 hPa 0,0 l/m 0 min 0 min 0 W/m 14,6 km/h (3 Bft) 95,74 %
24.01.2016 23:14 9,3 C 9,4 C 7,8 C 99 % 1 lf 1028,1 hPa 0,0 l/m 0 min 0 min 0 W/m 20,9 km/h (4 Bft) 95,74 %
24.01.2016 23:16 9,4 C 9,4 C 7,8 C 99 % 1 lf 1028,0 hPa 0,0 l/m 0 min 0 min 0 W/m 18,8 km/h (3 Bft) 95,74 %
24.01.2016 23:18 9,4 C 9,4 C 7,8 C 99 % 1 lf 1028,0 hPa 0,0 l/m 0 min 0 min 0 W/m 16,7 km/h (3 Bft) 93,48 %
24.01.2016 23:20 9,4 C 9,4 C 7,8 C 99 % 1 lf 1028,0 hPa 0,0 l/m 0 min 0 min 0 W/m 14,6 km/h (3 Bft) 95,74 %
24.01.2016 23:22 9,4 C 9,4 C 7,8 C 99 % 1 lf 1028,0 hPa 0,0 l/m 0 min 0 min 0 W/m 12,6 km/h (3 Bft) 91,49 %
24.01.2016 23:24 9,4 C 9,4 C 7,8 C 99 % 1 lf 1028,0 hPa 0,0 l/m 0 min 0 min 0 W/m 12,6 km/h (3 Bft) 93,62 %
24.01.2016 23:26 9,4 C 9,4 C 7,8 C 99 % 1 lf 1028,1 hPa 0,0 l/m 0 min 0 min 0 W/m 12,6 km/h (3 Bft) 91,49 %
24.01.2016 23:28 9,4 C 9,4 C 7,8 C 99 % 1 lf 1028,1 hPa 0,0 l/m 0 min 0 min 0 W/m 20,9 km/h (4 Bft) 95,74 %
24.01.2016 23:30 9,4 C 9,4 C 7,8 C 99 % 1 lf 1028,1 hPa 0,0 l/m 0 min 0 min 0 W/m 14,6 km/h (3 Bft) 95,65 %
24.01.2016 23:32 9,4 C 9,4 C 7,8 C 99 % 1 lf 1028,0 hPa 0,0 l/m 0 min 0 min 0 W/m 18,8 km/h (3 Bft) 95,74 %
24.01.2016 23:34 9,4 C 9,4 C 7,8 C 98 % 1 lf 1028,0 hPa 0,0 l/m 0 min 0 min 0 W/m 10,5 km/h (2 Bft) 93,62 %
24.01.2016 23:36 9,4 C 9,4 C 7,8 C 98 % 1 lf 1028,0 hPa 0,0 l/m 0 min 0 min 0 W/m 18,8 km/h (3 Bft) 94,55 %
24.01.2016 23:38 9,4 C 9,4 C 7,8 C 98 % 1 lf 1028,0 hPa 0,0 l/m 0 min 0 min 0 W/m 12,6 km/h (3 Bft) 95,74 %
24.01.2016 23:40 9,4 C 9,4 C 7,8 C 98 % 1 lf 1028,0 hPa 0,0 l/m 0 min 0 min 0 W/m 12,6 km/h (3 Bft) 91,30 %
24.01.2016 23:42 9,4 C 9,4 C 7,8 C 98 % 1 lf 1028,1 hPa 0,0 l/m 0 min 0 min 0 W/m 14,6 km/h (3 Bft) 95,74 %
24.01.2016 23:44 9,4 C 9,4 C 7,8 C 98 % 1 lf 1028,1 hPa 0,0 l/m 0 min 0 min 0 W/m 20,9 km/h (4 Bft) 97,87 %
24.01.2016 23:46 9,4 C 9,4 C 7,8 C 98 % 1 lf 1028,1 hPa 0,0 l/m 0 min 0 min 0 W/m 14,6 km/h (3 Bft) 100,00 %
24.01.2016 23:48 9,4 C 9,4 C 7,8 C 98 % 1 lf 1028,0 hPa 0,0 l/m 0 min 0 min 0 W/m 18,8 km/h (3 Bft) 100,00 %
24.01.2016 23:50 9,4 C 9,4 C 7,8 C 98 % 1 lf 1028,0 hPa 0,0 l/m 0 min 0 min 0 W/m 14,6 km/h (3 Bft) 97,83 %
24.01.2016 23:52 9,4 C 9,4 C 7,8 C 98 % 1 lf 1028,0 hPa 0,0 l/m 0 min 0 min 0 W/m 14,6 km/h (3 Bft) 95,74 %
24.01.2016 23:54 9,4 C 9,4 C 7,8 C 98 % 1 lf 1028,0 hPa 0,0 l/m 0 min 0 min 0 W/m 14,6 km/h (3 Bft) 95,74 %
24.01.2016 23:56 9,4 C 9,4 C 7,8 C 98 % 1 lf 1028,0 hPa 0,0 l/m 0 min 0 min 0 W/m 12,6 km/h (3 Bft) 95,74 %
24.01.2016 23:58 9,4 C 9,4 C 7,8 C 98 % 1 lf 1028,0 hPa 0,0 l/m 0 min 0 min 0 W/m 10,5 km/h (2 Bft) 97,87 %
_ Min-Zeit 04:32 03:58 04:00 02:34 00:00 21:42 - - - - 02:36 02:40
Minimum _ 2,9 C 2,8 C 1,1 C 91 % 0 lf 1027,8 hPa - - - - 4,2 km/h (1 Bft) 86,96 %
_ Max-Zeit 23:14 21:22 21:42 19:22 12:40 00:14 06:30 00:00 06:22 12:06 01:30 00:54
Maximum _ 9,4 C 9,4 C 7,8 C 99 % 15 lf 1032,9 hPa 0,2 l/m 0 min 2 min 92 W/m 29,3 km/h
S (5 Bft)
100,00 %
Durchschnitt _ 6,1 C 6,1 C 4,7 C 96 % 5 lf 1029,6 hPa #1,0 l/m #0 min. #2:16 h 37 W/m 13,1 km/h (3 Bft) 96,12 %
© 2016 W. Hausmann